AAL117 PADK-UMMS

Flight info

Callsign AAL117
Flight time N/A
Altitude 39000
Route JALEX3 LONOK DCT PINTT DCT NULUK DCT RUSOR/K0898F390 DCT DUKAR DCT KOGOR DCT TOMRI G7 TUMOK M131 NRM L168 RIGNI M58 ARGIP T821 ROGID M856 TEGLU P26 RUHAL RUHAL2H
Aircraft B77W/H-SDE1E2E3FGHIJ2J3J4J5M1RWXY/LB1D1

Departure

Time 2026-05-05 07:32
Airport Adak Airport (PADK)

Arrival

Time N/A
Airport Minsk National Airport (UMMS)
Time Latitude Longitude Altitude Speed Heading
2026-05-05 07:32 51.98875 -176.23110 9002 ft 282 kts 66°
2026-05-05 07:32 51.99592 -176.20152 8998 ft 281 kts 66°
2026-05-05 07:32 52.00310 -176.17188 8989 ft 283 kts 66°
2026-05-05 07:32 52.01029 -176.14211 9003 ft 284 kts 67°
2026-05-05 07:33 52.01747 -176.11236 8998 ft 282 kts 67°
2026-05-05 07:33 52.02461 -176.08277 8996 ft 281 kts 66°
2026-05-05 07:33 52.03176 -176.05310 9009 ft 283 kts 66°
2026-05-05 07:33 52.03894 -176.02327 9012 ft 283 kts 67°
2026-05-05 07:34 52.04560 -175.99552 8995 ft 281 kts 66°
2026-05-05 07:34 52.05263 -175.96617 8997 ft 278 kts 66°
2026-05-05 07:34 52.05962 -175.93702 8995 ft 275 kts 66°
2026-05-05 07:34 52.06655 -175.90808 8992 ft 273 kts 66°
2026-05-05 07:35 52.07268 -175.88242 8987 ft 271 kts 66°
2026-05-05 07:35 52.07975 -175.85285 9003 ft 276 kts 66°
2026-05-05 07:35 52.08675 -175.82347 9013 ft 280 kts 66°
2026-05-05 07:35 52.09375 -175.79407 9008 ft 284 kts 67°
2026-05-05 07:36 52.10030 -175.76655 9002 ft 283 kts 66°
2026-05-05 07:36 52.10753 -175.73606 8991 ft 280 kts 67°
2026-05-05 07:36 52.11452 -175.70657 8989 ft 279 kts 67°
2026-05-05 07:36 52.12148 -175.67723 8987 ft 277 kts 67°
2026-05-05 07:37 52.12703 -175.65373 8983 ft 276 kts 67°
2026-05-05 07:37 52.13302 -175.62836 8988 ft 275 kts 66°
2026-05-05 07:37 52.13944 -175.60116 8990 ft 274 kts 66°
2026-05-05 07:37 52.14753 -175.57615 8974 ft 268 kts 47°
2026-05-05 07:38 52.16061 -175.55953 9006 ft 272 kts 25°
2026-05-05 07:38 52.17907 -175.55015 8997 ft 281 kts
2026-05-05 07:38 52.19821 -175.54983 9117 ft 281 kts 360°
2026-05-05 07:38 52.21559 -175.55101 10146 ft 262 kts 359°
2026-05-05 07:39 52.23452 -175.55251 11097 ft 259 kts 359°
2026-05-05 07:39 52.25316 -175.55397 11351 ft 278 kts 359°
2026-05-05 07:39 52.27323 -175.55549 11575 ft 299 kts 359°
2026-05-05 07:39 52.29478 -175.55706 11760 ft 321 kts 359°
2026-05-05 07:40 52.31780 -175.55869 12003 ft 341 kts 359°
2026-05-05 07:40 52.34151 -175.56034 12623 ft 348 kts 359°
2026-05-05 07:40 52.36619 -175.56203 13370 ft 354 kts 359°
2026-05-05 07:40 52.39102 -175.56370 14046 ft 361 kts 359°
2026-05-05 07:41 52.41640 -175.56538 14664 ft 367 kts 359°
2026-05-05 07:41 52.44175 -175.56704 15358 ft 371 kts 359°
2026-05-05 07:41 52.46766 -175.56874 16106 ft 373 kts 359°
2026-05-05 07:41 52.49366 -175.57043 16863 ft 375 kts 359°
2026-05-05 07:42 52.51987 -175.57213 17605 ft 379 kts 359°
2026-05-05 07:42 52.54636 -175.57384 18321 ft 382 kts 358°
2026-05-05 07:42 52.57307 -175.57557 18964 ft 385 kts 358°
2026-05-05 07:42 52.59996 -175.57731 19600 ft 387 kts 358°
2026-05-05 07:43 52.62700 -175.57907 20227 ft 390 kts 358°
2026-05-05 07:43 52.65423 -175.58084 20844 ft 393 kts 358°
2026-05-05 07:43 52.68171 -175.58263 21449 ft 395 kts 358°
2026-05-05 07:43 52.70921 -175.58442 22055 ft 398 kts 358°
2026-05-05 07:44 52.73705 -175.58624 22647 ft 401 kts 358°
2026-05-05 07:44 52.76476 -175.58805 23213 ft 404 kts 358°
2026-05-05 07:44 52.77518 -175.58873 23420 ft 405 kts 358°
2026-05-05 07:44 52.80317 -175.59056 23955 ft 408 kts 357°
2026-05-05 07:45 52.83154 -175.59242 24408 ft 410 kts 357°
2026-05-05 07:45 52.86028 -175.59431 24864 ft 413 kts 357°
2026-05-05 07:45 52.88913 -175.59621 25305 ft 416 kts 357°
2026-05-05 07:45 52.91814 -175.59812 25736 ft 419 kts 357°
2026-05-05 07:46 52.94735 -175.60004 26162 ft 421 kts 357°
2026-05-05 07:46 52.97668 -175.60197 26575 ft 424 kts 357°
2026-05-05 07:46 53.00633 -175.60393 26989 ft 427 kts 357°
2026-05-05 07:46 53.03541 -175.60585 27379 ft 429 kts 357°
2026-05-05 07:47 53.06543 -175.60784 27772 ft 432 kts 357°
2026-05-05 07:47 53.09555 -175.60984 28155 ft 434 kts 357°
2026-05-05 07:47 53.12579 -175.61184 28537 ft 436 kts 357°
2026-05-05 07:47 53.15590 -175.61385 28884 ft 439 kts 357°
2026-05-05 07:48 53.18340 -175.61568 29181 ft 441 kts 357°
2026-05-05 07:48 53.21447 -175.61775 29505 ft 443 kts 357°
2026-05-05 07:48 53.24538 -175.61981 29814 ft 445 kts 357°
2026-05-05 07:48 53.27648 -175.62189 30146 ft 446 kts 357°
2026-05-05 07:49 53.30740 -175.62396 30528 ft 445 kts 357°
2026-05-05 07:49 53.33839 -175.62603 30882 ft 444 kts 357°
2026-05-05 07:49 53.36922 -175.62810 31196 ft 444 kts 357°
2026-05-05 07:49 53.40017 -175.63018 31499 ft 444 kts 356°
2026-05-05 07:50 53.43114 -175.63227 31804 ft 444 kts 356°
2026-05-05 07:50 53.46162 -175.63432 32089 ft 444 kts 356°
2026-05-05 07:50 53.49241 -175.63640 32372 ft 444 kts 356°
2026-05-05 07:50 53.52327 -175.63849 32653 ft 443 kts 356°
2026-05-05 07:51 53.55422 -175.64059 32928 ft 443 kts 356°
2026-05-05 07:51 53.58501 -175.64268 33201 ft 443 kts 356°
2026-05-05 07:51 53.61586 -175.64477 33463 ft 443 kts 356°
2026-05-05 07:51 53.64664 -175.64687 33718 ft 443 kts 356°
2026-05-05 07:52 53.67744 -175.64896 33973 ft 443 kts 356°
2026-05-05 07:52 53.70798 -175.65105 34211 ft 443 kts 356°
2026-05-05 07:52 53.73921 -175.65318 34363 ft 444 kts 356°
2026-05-05 07:52 53.77008 -175.65530 34403 ft 446 kts 356°
2026-05-05 07:53 53.83155 -175.65951 34451 ft 441 kts 356°
2026-05-05 07:53 53.89264 -175.66370 34459 ft 437 kts 356°
2026-05-05 07:54 53.95356 -175.66790 34465 ft 436 kts 356°
2026-05-05 07:54 54.01413 -175.67210 34468 ft 437 kts 356°
2026-05-05 07:55 54.07513 -175.67634 34473 ft 438 kts 356°
2026-05-05 07:55 54.13607 -175.68058 34477 ft 439 kts 356°
2026-05-05 07:56 54.19730 -175.68486 34475 ft 441 kts 356°
2026-05-05 07:56 54.25824 -175.68912 34475 ft 441 kts 356°
2026-05-05 07:57 54.31973 -175.69344 34474 ft 441 kts 356°
2026-05-05 07:57 54.38109 -175.69776 34475 ft 441 kts 356°
2026-05-05 07:58 54.44246 -175.70209 34475 ft 441 kts 356°
2026-05-05 07:58 54.50364 -175.70642 34477 ft 440 kts 356°
2026-05-05 07:59 54.56483 -175.71077 34476 ft 439 kts 356°
2026-05-05 07:59 54.62584 -175.71512 34477 ft 439 kts 356°
2026-05-05 08:00 54.68684 -175.71948 34477 ft 438 kts 356°
2026-05-05 08:00 54.74777 -175.72385 34480 ft 438 kts 356°
2026-05-05 08:01 54.80875 -175.72823 34605 ft 440 kts 356°
2026-05-05 08:01 54.83935 -175.73044 34826 ft 439 kts 356°
2026-05-05 08:01 54.86830 -175.73253 35035 ft 438 kts 356°
2026-05-05 08:02 54.89875 -175.73473 35189 ft 439 kts 356°
2026-05-05 08:02 54.92947 -175.73696 35227 ft 441 kts 356°
2026-05-05 08:02 54.99070 -175.74140 35275 ft 440 kts 356°
2026-05-05 08:03 55.05157 -175.74582 35278 ft 437 kts 356°
2026-05-05 08:03 55.11226 -175.75025 35282 ft 435 kts 356°
2026-05-05 08:04 55.17284 -175.75469 35285 ft 435 kts 356°
2026-05-05 08:04 55.23341 -175.75915 35286 ft 436 kts 356°
2026-05-05 08:05 55.29367 -175.76359 35286 ft 437 kts 356°
2026-05-05 08:05 55.35449 -175.76809 35288 ft 438 kts 356°
2026-05-05 08:06 55.41543 -175.77260 35291 ft 438 kts 356°
2026-05-05 08:06 55.47644 -175.77714 35285 ft 439 kts 356°
2026-05-05 08:07 55.53756 -175.78170 35288 ft 439 kts 356°
2026-05-05 08:07 55.59808 -175.78622 35286 ft 438 kts 356°
2026-05-05 08:08 55.65908 -175.79080 35289 ft 437 kts 356°
2026-05-05 08:08 55.71989 -175.79538 35289 ft 437 kts 356°
2026-05-05 08:09 55.78066 -175.79997 35288 ft 436 kts 356°
2026-05-05 08:09 55.84157 -175.80459 35496 ft 439 kts 356°
2026-05-05 08:10 55.87215 -175.80691 35633 ft 440 kts 356°
2026-05-05 08:10 55.90272 -175.80924 35722 ft 442 kts 356°
2026-05-05 08:10 55.96458 -175.81396 35915 ft 445 kts 356°
2026-05-05 08:11 56.02671 -175.81871 36096 ft 448 kts 356°
2026-05-05 08:11 56.08907 -175.82349 36269 ft 450 kts 356°
2026-05-05 08:12 56.15178 -175.82832 36415 ft 452 kts 356°
2026-05-05 08:12 56.21451 -175.83317 36549 ft 455 kts 356°
2026-05-05 08:13 56.27780 -175.83807 36694 ft 456 kts 356°
2026-05-05 08:13 56.34158 -175.84303 36805 ft 458 kts 356°
2026-05-05 08:14 56.39479 -175.84718 36900 ft 460 kts 356°
2026-05-05 08:14 56.45884 -175.85219 37006 ft 461 kts 356°
2026-05-05 08:15 56.52313 -175.85723 37098 ft 463 kts 356°
2026-05-05 08:15 56.58762 -175.86231 37188 ft 464 kts 356°
2026-05-05 08:16 56.65226 -175.86742 37255 ft 465 kts 356°
2026-05-05 08:16 56.71674 -175.87253 37347 ft 466 kts 356°
2026-05-05 08:17 56.78203 -175.87878 37400 ft 467 kts 352°
2026-05-05 08:17 56.84532 -175.90165 37461 ft 467 kts 344°
2026-05-05 08:18 56.90665 -175.94161 37515 ft 468 kts 338°
2026-05-05 08:18 56.96680 -175.98771 37568 ft 469 kts 338°
2026-05-05 08:19 57.02708 -176.03418 37624 ft 470 kts 338°
2026-05-05 08:19 57.08757 -176.08036 37674 ft 471 kts 338°
2026-05-05 08:20 57.14820 -176.12649 37718 ft 471 kts 338°
2026-05-05 08:20 57.20845 -176.17243 37761 ft 472 kts 338°
2026-05-05 08:21 57.26877 -176.21861 37799 ft 473 kts 338°
2026-05-05 08:21 57.32951 -176.26530 37834 ft 473 kts 338°
2026-05-05 08:22 57.39032 -176.31221 37876 ft 473 kts 338°
2026-05-05 08:22 57.45121 -176.35936 37920 ft 474 kts 338°
2026-05-05 08:23 57.51205 -176.40663 37945 ft 474 kts 338°
2026-05-05 08:23 57.57291 -176.45410 37979 ft 474 kts 337°
2026-05-05 08:24 57.63393 -176.50186 38016 ft 475 kts 337°
2026-05-05 08:24 57.69482 -176.54969 38049 ft 475 kts 337°
2026-05-05 08:25 57.75575 -176.59773 38083 ft 475 kts 337°
2026-05-05 08:25 57.81666 -176.64593 38123 ft 475 kts 337°
2026-05-05 08:26 57.87725 -176.69406 38158 ft 475 kts 337°
2026-05-05 08:26 57.93810 -176.74257 38194 ft 475 kts 337°
2026-05-05 08:27 57.99905 -176.79134 38225 ft 475 kts 337°
2026-05-05 08:27 58.05986 -176.84018 38255 ft 475 kts 337°
2026-05-05 08:28 58.12076 -176.88928 38303 ft 475 kts 337°
2026-05-05 08:28 58.18151 -176.93843 38336 ft 475 kts 336°
2026-05-05 08:29 58.24243 -176.98792 38374 ft 475 kts 336°
2026-05-05 08:30 58.33359 -177.06230 38428 ft 475 kts 336°
2026-05-05 08:30 58.39614 -177.10317 38463 ft 475 kts 345°
2026-05-05 08:31 58.46088 -177.12510 38494 ft 476 kts 351°
2026-05-05 08:31 58.52661 -177.14192 38507 ft 476 kts 351°
2026-05-05 08:32 58.59232 -177.15885 38519 ft 476 kts 351°
2026-05-05 08:32 58.65784 -177.17634 38531 ft 476 kts 351°
2026-05-05 08:33 58.72359 -177.19423 38570 ft 476 kts 351°
2026-05-05 08:33 58.78916 -177.21219 38567 ft 477 kts 351°
2026-05-05 08:34 58.85446 -177.23012 38583 ft 477 kts 351°
2026-05-05 08:34 58.92010 -177.24820 38599 ft 477 kts 351°
2026-05-05 08:35 58.98586 -177.26638 38611 ft 477 kts 351°
2026-05-05 08:35 59.05164 -177.28463 38602 ft 477 kts 351°
2026-05-05 08:36 59.11739 -177.30293 38626 ft 477 kts 351°
2026-05-05 08:36 59.18313 -177.32132 38639 ft 477 kts 350°
2026-05-05 08:37 59.24849 -177.33967 38648 ft 477 kts 350°
2026-05-05 08:37 59.31446 -177.35826 38652 ft 477 kts 350°
2026-05-05 08:38 59.38024 -177.37687 38654 ft 478 kts 350°
2026-05-05 08:38 59.44611 -177.39558 38675 ft 478 kts 350°
2026-05-05 08:39 59.51196 -177.41436 38683 ft 478 kts 350°
2026-05-05 08:39 59.57772 -177.43318 38681 ft 478 kts 350°
2026-05-05 08:40 59.64361 -177.45212 38681 ft 478 kts 350°
2026-05-05 08:40 59.70907 -177.47101 38689 ft 478 kts 350°
2026-05-05 08:41 59.77533 -177.49021 38707 ft 478 kts 350°
2026-05-05 08:41 59.84078 -177.50924 38697 ft 478 kts 350°
2026-05-05 08:42 59.90672 -177.52850 38692 ft 479 kts 350°
2026-05-05 08:42 59.97266 -177.54783 38699 ft 479 kts 350°
2026-05-05 08:43 60.03863 -177.56725 38716 ft 479 kts 350°
2026-05-05 08:43 60.10411 -177.58660 38726 ft 479 kts 350°
2026-05-05 08:44 60.17007 -177.60618 38740 ft 478 kts 350°
2026-05-05 08:44 60.23604 -177.62584 38714 ft 479 kts 350°
2026-05-05 08:45 60.30205 -177.64558 38746 ft 479 kts 350°
2026-05-05 08:45 60.36785 -177.66535 38746 ft 479 kts 350°
2026-05-05 08:46 60.43384 -177.68526 38746 ft 479 kts 349°
2026-05-05 08:46 60.49975 -177.70522 38756 ft 479 kts 349°
2026-05-05 08:47 60.56566 -177.72526 38750 ft 479 kts 349°
2026-05-05 08:47 60.63157 -177.74539 38769 ft 479 kts 349°
2026-05-05 08:48 60.69714 -177.76550 38750 ft 479 kts 349°
2026-05-05 08:48 60.76303 -177.78579 38753 ft 479 kts 349°
2026-05-05 08:49 60.82906 -177.80621 38756 ft 479 kts 349°
2026-05-05 08:49 60.89499 -177.82667 38766 ft 479 kts 349°
2026-05-05 08:50 60.96098 -177.84725 38781 ft 479 kts 349°
2026-05-05 08:50 61.02685 -177.86788 38782 ft 479 kts 349°
2026-05-05 08:51 61.09291 -177.88865 38769 ft 479 kts 349°
2026-05-05 08:51 61.15840 -177.90933 38758 ft 480 kts 349°
2026-05-05 08:52 61.22432 -177.93061 38780 ft 479 kts 347°
2026-05-05 08:52 61.28865 -177.96513 38767 ft 477 kts 342°
2026-05-05 08:53 61.35225 -178.00537 38770 ft 477 kts 341°
2026-05-05 08:53 61.41581 -178.04573 38786 ft 477 kts 342°
2026-05-05 08:54 61.47942 -178.08568 38777 ft 478 kts 342°
2026-05-05 08:54 61.54317 -178.12558 38778 ft 478 kts 342°
2026-05-05 08:55 61.60578 -178.16487 38793 ft 478 kts 342°
2026-05-05 08:55 61.66951 -178.20507 38795 ft 478 kts 341°
2026-05-05 08:56 61.73317 -178.24541 38789 ft 478 kts 341°
2026-05-05 08:56 61.79689 -178.28597 38774 ft 478 kts 341°
2026-05-05 08:57 61.86061 -178.32671 38783 ft 478 kts 341°
2026-05-05 08:57 61.92432 -178.36762 38821 ft 477 kts 341°
2026-05-05 08:58 61.97725 -178.40174 38814 ft 478 kts 341°
2026-05-05 08:58 62.04081 -178.44288 38807 ft 478 kts 341°
2026-05-05 08:59 62.10439 -178.48421 38808 ft 478 kts 341°
2026-05-05 08:59 62.16806 -178.52579 38821 ft 478 kts 341°
2026-05-05 09:00 62.23177 -178.56756 38819 ft 478 kts 341°
2026-05-05 09:00 62.29538 -178.60947 38780 ft 479 kts 341°
2026-05-05 09:01 62.35882 -178.65145 38762 ft 479 kts 341°
2026-05-05 09:01 62.42261 -178.69384 38757 ft 480 kts 341°
2026-05-05 09:02 62.48644 -178.73645 38747 ft 480 kts 341°
2026-05-05 09:02 62.55022 -178.77922 38748 ft 480 kts 341°
2026-05-05 09:03 62.61410 -178.82224 38746 ft 480 kts 341°
2026-05-05 09:03 62.67753 -178.86516 38749 ft 480 kts 341°
2026-05-05 09:04 62.74173 -178.90880 38744 ft 480 kts 341°
2026-05-05 09:04 62.80515 -178.95211 38745 ft 480 kts 340°
2026-05-05 09:05 62.86904 -178.99593 38742 ft 480 kts 340°
2026-05-05 09:05 62.93274 -179.03982 38744 ft 480 kts 340°
2026-05-05 09:06 62.99660 -179.08402 38733 ft 480 kts 340°
2026-05-05 09:06 63.06038 -179.12836 38741 ft 481 kts 340°
2026-05-05 09:07 63.12419 -179.17294 38729 ft 481 kts 340°
2026-05-05 09:07 63.18796 -179.21770 38735 ft 481 kts 340°
2026-05-05 09:08 63.25134 -179.26239 38737 ft 481 kts 340°
2026-05-05 09:08 63.31517 -179.30759 38726 ft 481 kts 340°
2026-05-05 09:09 63.37909 -179.35308 38728 ft 481 kts 340°
2026-05-05 09:09 63.44291 -179.39871 38729 ft 481 kts 340°
2026-05-05 09:10 63.50626 -179.44422 38730 ft 482 kts 340°
2026-05-05 09:10 63.57011 -179.49029 38723 ft 482 kts 340°
2026-05-05 09:11 63.63392 -179.53656 38724 ft 482 kts 340°
2026-05-05 09:11 63.69784 -179.58313 38723 ft 482 kts 340°
2026-05-05 09:12 63.76159 -179.62979 38721 ft 482 kts 340°
2026-05-05 09:12 63.82546 -179.67677 38717 ft 482 kts 340°
2026-05-05 09:13 63.88933 -179.72397 38716 ft 482 kts 340°
2026-05-05 09:13 63.95312 -179.77134 38715 ft 482 kts 340°
2026-05-05 09:14 64.01647 -179.81861 38712 ft 483 kts 339°
2026-05-05 09:14 64.08044 -179.86656 38714 ft 483 kts 339°
2026-05-05 09:15 64.14431 -179.91468 38715 ft 483 kts 339°
2026-05-05 09:15 64.20808 -179.96295 38714 ft 483 kts 339°
2026-05-05 09:16 64.27061 179.98948 38710 ft 483 kts 339°
2026-05-05 09:16 64.33441 179.94072 38703 ft 483 kts 339°
2026-05-05 09:17 64.39830 179.89163 38706 ft 483 kts 339°
2026-05-05 09:17 64.46207 179.84241 38705 ft 483 kts 339°
2026-05-05 09:18 64.52550 179.79322 38698 ft 483 kts 339°
2026-05-05 09:18 64.58455 179.72409 38707 ft 474 kts 315°
2026-05-05 09:18 64.60605 179.66627 38706 ft 472 kts 303°
2026-05-05 09:19 64.62249 179.60009 38703 ft 472 kts 294°
2026-05-05 09:19 64.63268 179.52738 38693 ft 473 kts 280°
2026-05-05 09:19 64.63680 179.45110 38704 ft 474 kts 278°
2026-05-05 09:20 64.64533 179.29982 38705 ft 474 kts 282°
2026-05-05 09:20 64.66293 179.15112 38700 ft 473 kts 290°
2026-05-05 09:21 64.68938 179.01164 38707 ft 473 kts 296°
2026-05-05 09:21 64.71867 178.87366 38697 ft 474 kts 296°
2026-05-05 09:22 64.74782 178.73520 38698 ft 474 kts 296°
2026-05-05 09:22 64.77669 178.59583 38696 ft 475 kts 296°
2026-05-05 09:23 64.80533 178.45592 38689 ft 476 kts 296°
2026-05-05 09:23 64.83387 178.31553 38692 ft 476 kts 295°
2026-05-05 09:24 64.86230 178.17475 38694 ft 477 kts 295°
2026-05-05 09:24 64.89068 178.03335 38687 ft 478 kts 295°
2026-05-05 09:25 64.91894 177.89153 38680 ft 478 kts 295°
2026-05-05 09:25 64.94695 177.75000 38689 ft 479 kts 295°
2026-05-05 09:26 64.97492 177.60770 38686 ft 479 kts 295°
2026-05-05 09:26 65.00284 177.46467 38682 ft 479 kts 295°
2026-05-05 09:27 65.03066 177.32115 38686 ft 479 kts 294°
2026-05-05 09:27 65.05831 177.17752 38688 ft 479 kts 294°
2026-05-05 09:28 65.08585 177.03342 38685 ft 480 kts 294°
2026-05-05 09:28 65.11328 176.88886 38684 ft 480 kts 294°
2026-05-05 09:29 65.14053 176.74421 38685 ft 480 kts 294°
2026-05-05 09:29 65.16770 176.59898 38685 ft 480 kts 294°
2026-05-05 09:30 65.19470 176.45365 38683 ft 481 kts 294°
2026-05-05 09:30 65.22181 176.30786 38684 ft 481 kts 296°
2026-05-05 09:31 65.25546 176.17045 38679 ft 481 kts 306°
2026-05-05 09:31 65.29606 176.04408 38683 ft 482 kts 307°
2026-05-05 09:32 65.33726 175.91735 38681 ft 482 kts 307°
2026-05-05 09:32 65.37807 175.78966 38679 ft 482 kts 306°
2026-05-05 09:33 65.41862 175.66126 38675 ft 483 kts 306°
2026-05-05 09:33 65.45914 175.53218 38676 ft 483 kts 306°
2026-05-05 09:34 65.49960 175.40267 38671 ft 483 kts 306°
2026-05-05 09:34 65.53964 175.27380 38678 ft 483 kts 306°
2026-05-05 09:35 65.57979 175.14381 38681 ft 483 kts 306°
2026-05-05 09:35 65.63997 174.94763 38673 ft 484 kts 305°
2026-05-05 09:36 65.67988 174.81655 38669 ft 484 kts 305°
2026-05-05 09:36 65.71983 174.68458 38675 ft 484 kts 305°
2026-05-05 09:37 65.75956 174.55257 38678 ft 484 kts 305°
2026-05-05 09:37 65.79859 174.41891 38680 ft 484 kts 304°
2026-05-05 09:38 65.83695 174.28525 38677 ft 484 kts 304°
2026-05-05 09:38 65.87563 174.15024 38669 ft 484 kts 304°
2026-05-05 09:39 65.91417 174.01528 38671 ft 484 kts 304°
2026-05-05 09:39 65.95261 173.87979 38676 ft 484 kts 304°
2026-05-05 09:40 65.99098 173.74376 38679 ft 484 kts 303°
2026-05-05 09:40 66.02925 173.60731 38675 ft 484 kts 303°
2026-05-05 09:41 66.06715 173.47136 38666 ft 484 kts 303°
2026-05-05 09:41 66.10515 173.33421 38661 ft 485 kts 303°
2026-05-05 09:42 66.14279 173.19600 38661 ft 485 kts 303°
2026-05-05 09:42 66.18081 173.05817 38678 ft 485 kts 303°
2026-05-05 09:43 66.21901 172.92056 38683 ft 485 kts 303°
2026-05-05 09:43 66.25710 172.78232 38663 ft 485 kts 303°
2026-05-05 09:44 66.29493 172.64378 38672 ft 485 kts 303°
2026-05-05 09:44 66.32633 172.52800 38670 ft 485 kts 303°
2026-05-05 09:45 66.37012 172.36553 38671 ft 485 kts 302°
2026-05-05 09:45 66.40159 172.24807 38671 ft 485 kts 302°
2026-05-05 09:46 66.43874 172.10857 38664 ft 485 kts 302°
2026-05-05 09:46 66.47606 171.96757 38668 ft 485 kts 302°
2026-05-05 09:47 66.51325 171.82613 38663 ft 486 kts 302°
2026-05-05 09:47 66.55032 171.68426 38666 ft 486 kts 302°
2026-05-05 09:48 66.58725 171.54197 38659 ft 486 kts 302°
2026-05-05 09:48 66.62398 171.39955 38658 ft 486 kts 301°
2026-05-05 09:49 66.66066 171.25640 38656 ft 486 kts 301°
2026-05-05 09:49 66.69711 171.11327 38663 ft 486 kts 301°
2026-05-05 09:50 66.73334 170.97020 38660 ft 486 kts 301°
2026-05-05 09:50 66.76984 170.82640 38659 ft 486 kts 301°
2026-05-05 09:51 66.80634 170.68206 38665 ft 486 kts 301°
2026-05-05 09:51 66.84261 170.53746 38656 ft 486 kts 301°
2026-05-05 09:52 66.87885 170.39207 38659 ft 486 kts 301°
2026-05-05 09:52 66.91487 170.24676 38651 ft 486 kts 301°
2026-05-05 09:53 66.95073 170.10149 38657 ft 486 kts 301°
2026-05-05 09:53 66.98664 169.95514 38656 ft 486 kts 300°
2026-05-05 09:54 67.01699 169.83062 38654 ft 486 kts 300°
2026-05-05 09:54 67.05205 169.68584 38648 ft 486 kts 300°
2026-05-05 09:55 67.08755 169.53829 38641 ft 486 kts 300°
2026-05-05 09:55 67.12282 169.39071 38658 ft 486 kts 300°
2026-05-05 09:56 67.15806 169.24221 38647 ft 487 kts 300°
2026-05-05 09:56 67.19323 169.09309 38648 ft 487 kts 300°
2026-05-05 09:57 67.22827 168.94360 38646 ft 487 kts 300°
2026-05-05 09:57 67.26333 168.79344 38644 ft 487 kts 299°
2026-05-05 09:58 67.29827 168.64285 38644 ft 488 kts 299°
2026-05-05 09:58 67.33302 168.49198 38634 ft 488 kts 299°
2026-05-05 09:59 67.36767 168.34041 38635 ft 488 kts 299°
2026-05-05 09:59 67.40200 168.18921 38628 ft 489 kts 298°
2026-05-05 10:00 67.43647 168.03631 38628 ft 489 kts 298°
2026-05-05 10:00 67.47081 167.88294 38627 ft 489 kts 298°
2026-05-05 10:01 67.50492 167.72947 38622 ft 489 kts 298°
2026-05-05 10:01 67.53874 167.57638 38622 ft 489 kts 298°
2026-05-05 10:02 67.57274 167.42197 38608 ft 489 kts 298°
2026-05-05 10:02 67.60669 167.26732 38608 ft 489 kts 298°
2026-05-05 10:03 67.64049 167.11215 38603 ft 490 kts 298°
2026-05-05 10:03 67.67337 166.96001 38596 ft 490 kts 297°
2026-05-05 10:04 67.70689 166.80374 38594 ft 490 kts 297°
2026-05-05 10:04 67.74004 166.64810 38593 ft 490 kts 297°
2026-05-05 10:05 67.77333 166.49067 38588 ft 490 kts 297°
2026-05-05 10:05 67.80640 166.33310 38586 ft 490 kts 297°
2026-05-05 10:06 67.83935 166.17506 38581 ft 490 kts 297°
2026-05-05 10:06 67.87220 166.01682 38582 ft 490 kts 296°
2026-05-05 10:07 67.90512 165.85797 38583 ft 490 kts 296°
2026-05-05 10:07 67.93764 165.69992 38572 ft 490 kts 296°
2026-05-05 10:08 67.97017 165.54049 38571 ft 490 kts 296°
2026-05-05 10:08 68.00145 165.38599 38566 ft 490 kts 296°
2026-05-05 10:09 68.03315 165.22821 38566 ft 490 kts 296°
2026-05-05 10:09 68.06521 165.06749 38563 ft 490 kts 295°
2026-05-05 10:10 68.09717 164.90602 38562 ft 490 kts 295°
2026-05-05 10:10 68.12894 164.74440 38559 ft 490 kts 295°
2026-05-05 10:11 68.16055 164.58236 38564 ft 490 kts 295°
2026-05-05 10:11 68.19207 164.41988 38548 ft 490 kts 295°
2026-05-05 10:12 68.22326 164.25785 38552 ft 490 kts 295°
2026-05-05 10:12 68.25437 164.09399 38547 ft 491 kts 294°
2026-05-05 10:13 68.28522 163.92988 38547 ft 491 kts 294°
2026-05-05 10:13 68.31601 163.76501 38547 ft 491 kts 294°
2026-05-05 10:14 68.34667 163.59957 38548 ft 491 kts 294°
2026-05-05 10:14 68.37694 163.43500 38545 ft 491 kts 294°
2026-05-05 10:15 68.40725 163.26880 38541 ft 491 kts 294°
2026-05-05 10:15 68.43745 163.10187 38543 ft 491 kts 293°
2026-05-05 10:16 68.46745 162.93469 38529 ft 491 kts 293°
2026-05-05 10:16 68.49728 162.76707 38535 ft 491 kts 293°
2026-05-05 10:17 68.52690 162.59924 38548 ft 491 kts 293°
2026-05-05 10:17 68.55637 162.43086 38524 ft 491 kts 292°
2026-05-05 10:18 68.58554 162.26302 38533 ft 491 kts 292°
2026-05-05 10:18 68.61453 162.09330 38526 ft 491 kts 292°
2026-05-05 10:19 68.64312 161.92318 38524 ft 491 kts 292°
2026-05-05 10:19 68.67163 161.75228 38521 ft 491 kts 292°
2026-05-05 10:20 68.69991 161.58156 38523 ft 491 kts 291°
2026-05-05 10:20 68.72807 161.41031 38513 ft 491 kts 291°
2026-05-05 10:21 68.75754 161.24173 38512 ft 492 kts 295°
2026-05-05 10:21 68.78982 161.07494 38516 ft 492 kts 295°
2026-05-05 10:22 68.82204 160.90781 38513 ft 492 kts 295°
2026-05-05 10:22 68.85372 160.74007 38521 ft 492 kts 294°
2026-05-05 10:23 68.88520 160.57154 38518 ft 492 kts 294°
2026-05-05 10:23 68.91648 160.40260 38517 ft 492 kts 294°
2026-05-05 10:24 68.94694 160.23331 38516 ft 492 kts 293°
2026-05-05 10:24 68.97726 160.06255 38520 ft 492 kts 293°
2026-05-05 10:25 69.00749 159.89123 38519 ft 492 kts 293°
2026-05-05 10:25 69.03762 159.71945 38515 ft 492 kts 293°
2026-05-05 10:26 69.06756 159.54732 38517 ft 492 kts 293°
2026-05-05 10:26 69.09737 159.37447 38518 ft 493 kts 292°
2026-05-05 10:27 69.12697 159.20129 38519 ft 493 kts 292°
2026-05-05 10:27 69.15649 159.02710 38513 ft 493 kts 292°
2026-05-05 10:28 69.18557 158.85404 38527 ft 492 kts 292°
2026-05-05 10:28 69.21466 158.67942 38510 ft 492 kts 292°
2026-05-05 10:29 69.24364 158.50407 38511 ft 493 kts 292°
2026-05-05 10:29 69.27237 158.32873 38515 ft 492 kts 292°
2026-05-05 10:30 69.30109 158.15308 38521 ft 493 kts 292°
2026-05-05 10:30 69.32484 158.00681 38519 ft 493 kts 292°
2026-05-05 10:31 69.35328 157.83019 38518 ft 493 kts 291°
2026-05-05 10:31 69.38154 157.65312 38521 ft 493 kts 291°
2026-05-05 10:32 69.40978 157.47556 38519 ft 493 kts 291°
2026-05-05 10:32 69.43794 157.29777 38521 ft 493 kts 291°
2026-05-05 10:33 69.46587 157.11993 38519 ft 493 kts 291°
2026-05-05 10:33 69.49364 156.94122 38517 ft 493 kts 291°
2026-05-05 10:34 69.52105 156.76320 38524 ft 493 kts 291°
2026-05-05 10:34 69.54848 156.58338 38520 ft 493 kts 290°
2026-05-05 10:35 69.57572 156.40310 38523 ft 493 kts 290°
2026-05-05 10:35 69.60279 156.22226 38515 ft 493 kts 290°
2026-05-05 10:36 69.62963 156.04131 38522 ft 493 kts 290°
2026-05-05 10:36 69.65633 155.85959 38515 ft 493 kts 290°
2026-05-05 10:37 69.68285 155.67733 38521 ft 494 kts 290°
2026-05-05 10:37 69.70833 155.50049 38518 ft 494 kts 290°
2026-05-05 10:38 69.73328 155.32579 38522 ft 494 kts 289°
2026-05-05 10:38 69.75924 155.14219 38517 ft 494 kts 289°
2026-05-05 10:39 69.78504 154.95805 38524 ft 495 kts 289°
2026-05-05 10:39 69.81071 154.77316 38516 ft 495 kts 289°
2026-05-05 10:40 69.83601 154.59009 38526 ft 495 kts 289°
2026-05-05 10:40 69.86141 154.40549 38520 ft 495 kts 289°
2026-05-05 10:41 69.88658 154.22065 38528 ft 495 kts 288°
2026-05-05 10:41 69.91167 154.03442 38532 ft 495 kts 288°
2026-05-05 10:42 69.94900 153.75359 38531 ft 495 kts 288°
2026-05-05 10:43 69.97366 153.56574 38531 ft 496 kts 288°
2026-05-05 10:43 69.99813 153.37732 38533 ft 495 kts 288°
2026-05-05 10:44 70.02238 153.18863 38539 ft 496 kts 288°
2026-05-05 10:44 70.04641 152.99968 38537 ft 496 kts 287°
2026-05-05 10:45 70.07024 152.81027 38543 ft 496 kts 287°
2026-05-05 10:45 70.09376 152.62124 38543 ft 496 kts 287°
2026-05-05 10:46 70.11735 152.42983 38541 ft 496 kts 287°
2026-05-05 10:46 70.14052 152.24034 38539 ft 496 kts 287°
2026-05-05 10:47 70.16445 152.05010 38532 ft 496 kts 287°
2026-05-05 10:47 70.18854 151.85964 38540 ft 496 kts 287°
2026-05-05 10:48 70.21232 151.66869 38545 ft 495 kts 287°
2026-05-05 10:48 70.23584 151.47707 38548 ft 495 kts 287°
2026-05-05 10:49 70.25906 151.28549 38551 ft 495 kts 287°
2026-05-05 10:49 70.28114 151.10139 38555 ft 495 kts 286°
2026-05-05 10:50 70.30404 150.90836 38553 ft 496 kts 286°
2026-05-05 10:50 70.32672 150.71512 38557 ft 496 kts 286°
2026-05-05 10:51 70.34921 150.52123 38561 ft 496 kts 286°
2026-05-05 10:51 70.37132 150.32845 38556 ft 496 kts 285°
2026-05-05 10:52 70.39337 150.13393 38555 ft 496 kts 285°
2026-05-05 10:52 70.41520 149.93911 38559 ft 496 kts 285°
2026-05-05 10:53 70.43681 149.74395 38562 ft 496 kts 285°
2026-05-05 10:53 70.45831 149.54778 38558 ft 496 kts 285°
2026-05-05 10:54 70.47951 149.35110 38553 ft 496 kts 284°
2026-05-05 10:54 70.49975 149.15793 38551 ft 496 kts 284°
2026-05-05 10:55 70.52031 148.95912 38559 ft 496 kts 284°
2026-05-05 10:55 70.54055 148.76140 38552 ft 496 kts 284°
2026-05-05 10:56 70.56062 148.56317 38553 ft 497 kts 284°
2026-05-05 10:56 70.58049 148.36437 38553 ft 497 kts 283°
2026-05-05 10:57 70.60015 148.16505 38550 ft 497 kts 283°
2026-05-05 10:57 70.61964 147.96524 38551 ft 497 kts 283°
2026-05-05 10:58 70.63921 147.76552 38559 ft 498 kts 284°
2026-05-05 10:58 70.65939 147.56563 38554 ft 498 kts 284°
2026-05-05 10:59 70.67943 147.36505 38558 ft 498 kts 283°
2026-05-05 10:59 70.69909 147.16438 38567 ft 498 kts 283°
2026-05-05 11:00 70.71851 146.96297 38554 ft 499 kts 283°
2026-05-05 11:00 70.73774 146.76090 38564 ft 499 kts 283°
2026-05-05 11:01 70.75658 146.56031 38564 ft 499 kts 283°
2026-05-05 11:01 70.77541 146.35759 38579 ft 499 kts 283°
2026-05-05 11:02 70.79376 146.15421 38572 ft 499 kts 282°
2026-05-05 11:02 70.81162 145.95043 38571 ft 499 kts 282°
2026-05-05 11:03 70.82933 145.74575 38573 ft 499 kts 282°
2026-05-05 11:03 70.84683 145.54104 38578 ft 500 kts 282°
2026-05-05 11:04 70.86374 145.34066 38581 ft 500 kts 282°
2026-05-05 11:04 70.88083 145.13511 38580 ft 500 kts 281°
2026-05-05 11:05 70.89780 144.92779 38580 ft 500 kts 281°
2026-05-05 11:05 70.91431 144.72298 38578 ft 500 kts 281°
2026-05-05 11:06 70.93072 144.51618 38586 ft 500 kts 281°
2026-05-05 11:06 70.94689 144.30913 38593 ft 500 kts 281°
2026-05-05 11:07 70.96285 144.10151 38590 ft 500 kts 281°
2026-05-05 11:07 70.97858 143.89409 38593 ft 500 kts 281°
2026-05-05 11:08 70.99425 143.68564 38596 ft 501 kts 281°
2026-05-05 11:08 71.01034 143.47769 38595 ft 501 kts 281°
2026-05-05 11:09 71.02603 143.27401 38595 ft 501 kts 281°
2026-05-05 11:09 71.04151 143.06871 38598 ft 502 kts 281°
2026-05-05 11:10 71.05697 142.85934 38595 ft 502 kts 280°
2026-05-05 11:10 71.07219 142.64948 38596 ft 502 kts 280°
2026-05-05 11:11 71.08659 142.44760 38601 ft 502 kts 280°
2026-05-05 11:11 71.10136 142.23711 38599 ft 503 kts 280°
2026-05-05 11:12 71.11591 142.02595 38598 ft 503 kts 279°
2026-05-05 11:12 71.12946 141.82590 38601 ft 503 kts 279°
2026-05-05 11:13 71.14250 141.63012 38600 ft 503 kts 279°
2026-05-05 11:13 71.15610 141.42222 38598 ft 503 kts 279°
2026-05-05 11:14 71.16946 141.21414 38602 ft 502 kts 279°
2026-05-05 11:14 71.18287 141.00121 38602 ft 502 kts 279°
2026-05-05 11:15 71.19369 140.82639 38602 ft 502 kts 279°
2026-05-05 11:15 71.20655 140.61469 38605 ft 502 kts 278°
2026-05-05 11:16 71.21926 140.40144 38611 ft 501 kts 278°
2026-05-05 11:16 71.23169 140.18841 38608 ft 501 kts 278°
2026-05-05 11:17 71.24387 139.97528 38611 ft 501 kts 278°
2026-05-05 11:17 71.25575 139.76311 38603 ft 501 kts 278°
2026-05-05 11:18 71.26744 139.54969 38600 ft 500 kts 278°
2026-05-05 11:18 71.27892 139.33587 38609 ft 500 kts 278°
2026-05-05 11:19 71.29011 139.12219 38605 ft 500 kts 277°
2026-05-05 11:19 71.30089 138.90799 38604 ft 500 kts 277°
2026-05-05 11:20 71.31109 138.70000 38601 ft 500 kts 277°
2026-05-05 11:20 71.32132 138.48711 38602 ft 500 kts 277°
2026-05-05 11:21 71.33142 138.27206 38605 ft 500 kts 277°
2026-05-05 11:21 71.34126 138.05707 38602 ft 500 kts 277°
2026-05-05 11:22 71.35072 137.84502 38603 ft 500 kts 276°
2026-05-05 11:22 71.36008 137.62956 38597 ft 500 kts 276°
2026-05-05 11:23 71.36907 137.41666 38600 ft 500 kts 276°
2026-05-05 11:23 71.37789 137.20210 38601 ft 500 kts 276°
2026-05-05 11:24 71.38651 136.98605 38597 ft 500 kts 276°
2026-05-05 11:24 71.39490 136.76957 38598 ft 500 kts 276°
2026-05-05 11:25 71.40303 136.55321 38595 ft 500 kts 275°
2026-05-05 11:25 71.41081 136.34012 38594 ft 500 kts 275°
2026-05-05 11:26 71.41866 136.12314 38595 ft 500 kts 277°
2026-05-05 11:26 71.42948 135.91459 38597 ft 500 kts 279°
2026-05-05 11:27 71.44152 135.69943 38592 ft 500 kts 279°
2026-05-05 11:27 71.45310 135.48503 38595 ft 500 kts 278°
2026-05-05 11:28 71.46425 135.26921 38595 ft 500 kts 278°
2026-05-05 11:28 71.47512 135.05284 38596 ft 500 kts 278°
2026-05-05 11:29 71.48575 134.83656 38600 ft 500 kts 278°
2026-05-05 11:29 71.49613 134.62018 38588 ft 500 kts 278°
2026-05-05 11:30 71.50624 134.40485 38591 ft 499 kts 277°
2026-05-05 11:30 71.51619 134.18847 38592 ft 499 kts 277°
2026-05-05 11:31 71.52570 133.98685 38597 ft 499 kts 278°
2026-05-05 11:31 71.53543 133.77977 38586 ft 499 kts 277°
2026-05-05 11:32 71.54532 133.56298 38589 ft 499 kts 277°
2026-05-05 11:32 71.55490 133.34617 38593 ft 498 kts 277°
2026-05-05 11:33 71.56420 133.12943 38595 ft 498 kts 277°
2026-05-05 11:33 71.57327 132.91204 38599 ft 498 kts 277°
2026-05-05 11:34 71.58091 132.72400 38600 ft 498 kts 277°
2026-05-05 11:34 71.58946 132.50809 38590 ft 498 kts 276°
2026-05-05 11:35 71.59788 132.28916 38596 ft 497 kts 276°
2026-05-05 11:35 71.60598 132.07166 38595 ft 497 kts 276°
2026-05-05 11:36 71.61378 131.85549 38592 ft 497 kts 276°
2026-05-05 11:36 71.62138 131.63766 38592 ft 497 kts 276°
2026-05-05 11:37 71.62874 131.41967 38589 ft 497 kts 276°
2026-05-05 11:37 71.63584 131.20178 38593 ft 497 kts 275°
2026-05-05 11:38 71.64269 130.98380 38587 ft 497 kts 275°
2026-05-05 11:38 71.64927 130.76657 38599 ft 497 kts 275°
2026-05-05 11:39 71.65563 130.54844 38597 ft 496 kts 275°
2026-05-05 11:39 71.66179 130.32985 38595 ft 496 kts 275°
2026-05-05 11:40 71.66767 130.11141 38590 ft 496 kts 275°
2026-05-05 11:40 71.67334 129.89281 38597 ft 496 kts 274°
2026-05-05 11:41 71.67878 129.67418 38593 ft 496 kts 274°
2026-05-05 11:41 71.68397 129.45567 38597 ft 496 kts 274°
2026-05-05 11:42 71.68892 129.23803 38592 ft 496 kts 274°
2026-05-05 11:42 71.69462 129.01928 38591 ft 496 kts 279°
2026-05-05 11:43 71.71245 128.80778 38591 ft 495 kts 290°
2026-05-05 11:43 71.74219 128.61020 38589 ft 495 kts 298°
2026-05-05 11:44 71.77481 128.41636 38588 ft 495 kts 298°
2026-05-05 11:44 71.80682 128.22160 38593 ft 495 kts 297°
2026-05-05 11:45 71.83810 128.02616 38587 ft 495 kts 297°
2026-05-05 11:45 71.86029 127.88609 38583 ft 495 kts 297°
2026-05-05 11:46 71.89141 127.68853 38589 ft 495 kts 296°
2026-05-05 11:46 71.92231 127.49023 38587 ft 495 kts 296°
2026-05-05 11:47 71.95294 127.29132 38590 ft 495 kts 296°
2026-05-05 11:47 71.98332 127.09219 38585 ft 495 kts 296°
2026-05-05 11:48 72.02858 126.79193 38584 ft 494 kts 296°
2026-05-05 11:48 72.05820 126.59294 38588 ft 493 kts 296°
2026-05-05 11:49 72.08783 126.39190 38589 ft 493 kts 295°
2026-05-05 11:49 72.11717 126.19074 38581 ft 493 kts 295°
2026-05-05 11:50 72.14632 125.98883 38581 ft 492 kts 295°
2026-05-05 11:50 72.17525 125.78642 38582 ft 492 kts 295°
2026-05-05 11:51 72.20395 125.58347 38575 ft 492 kts 295°
2026-05-05 11:51 72.23246 125.37976 38581 ft 492 kts 295°
2026-05-05 11:52 72.26079 125.17520 38576 ft 492 kts 294°
2026-05-05 11:52 72.28883 124.97061 38585 ft 492 kts 294°
2026-05-05 11:53 72.31667 124.76524 38582 ft 492 kts 294°
2026-05-05 11:53 72.34427 124.55943 38577 ft 492 kts 294°
2026-05-05 11:54 72.37148 124.35442 38575 ft 492 kts 294°
2026-05-05 11:54 72.39866 124.14734 38579 ft 491 kts 294°
2026-05-05 11:55 72.42564 123.93951 38572 ft 491 kts 293°
2026-05-05 11:55 72.45240 123.73113 38569 ft 491 kts 293°
2026-05-05 11:56 72.47894 123.52208 38562 ft 491 kts 293°
2026-05-05 11:56 72.50509 123.31381 38570 ft 491 kts 293°
2026-05-05 11:57 72.52692 123.13811 38569 ft 491 kts 292°
2026-05-05 11:57 72.55698 122.89353 38566 ft 491 kts 292°
2026-05-05 11:58 72.57832 122.71776 38564 ft 491 kts 292°
2026-05-05 11:58 72.60376 122.50609 38562 ft 490 kts 292°
2026-05-05 11:59 72.62897 122.29394 38559 ft 490 kts 292°
2026-05-05 11:59 72.65394 122.08118 38552 ft 490 kts 292°
2026-05-05 12:00 72.67851 121.86951 38554 ft 490 kts 291°
2026-05-05 12:00 72.69445 121.73076 38551 ft 489 kts 291°
2026-05-05 12:01 72.71901 121.51484 38554 ft 489 kts 291°
2026-05-05 12:01 72.74307 121.30079 38569 ft 490 kts 291°
2026-05-05 12:02 72.76696 121.08557 38749 ft 490 kts 291°
2026-05-05 12:02 72.79068 120.86936 38842 ft 492 kts 291°
2026-05-05 12:03 72.81423 120.65185 38964 ft 492 kts 290°
2026-05-05 12:03 72.83759 120.43344 39038 ft 494 kts 290°
2026-05-05 12:04 72.86073 120.21433 39142 ft 495 kts 290°
2026-05-05 12:04 72.88365 119.99438 39245 ft 494 kts 290°
2026-05-05 12:05 72.90623 119.77496 39330 ft 495 kts 290°
2026-05-05 12:05 72.92872 119.55355 39333 ft 498 kts 289°
2026-05-05 12:06 72.95117 119.32943 39342 ft 500 kts 289°
2026-05-05 12:06 72.97346 119.10396 39337 ft 501 kts 289°
2026-05-05 12:07 72.99550 118.87790 39335 ft 502 kts 289°
2026-05-05 12:07 73.01736 118.65051 39334 ft 502 kts 289°
2026-05-05 12:08 73.03889 118.42348 39333 ft 501 kts 288°
2026-05-05 12:08 73.06013 118.19622 39330 ft 500 kts 288°
2026-05-05 12:09 73.08092 117.97051 39329 ft 499 kts 288°
2026-05-05 12:09 73.10154 117.74343 39330 ft 497 kts 288°
2026-05-05 12:10 73.12187 117.51640 39321 ft 496 kts 288°
2026-05-05 12:10 73.14189 117.28943 39323 ft 494 kts 287°
2026-05-05 12:11 73.16160 117.06259 39320 ft 493 kts 287°
2026-05-05 12:11 73.18104 116.83552 39318 ft 493 kts 287°
2026-05-05 12:12 73.19988 116.61208 39319 ft 492 kts 287°
2026-05-05 12:12 73.21882 116.38408 39312 ft 492 kts 287°
2026-05-05 12:13 73.23736 116.15738 39314 ft 492 kts 286°
2026-05-05 12:13 73.25582 115.92806 39313 ft 493 kts 286°
2026-05-05 12:14 73.27399 115.69881 39309 ft 493 kts 286°
2026-05-05 12:14 73.29191 115.46907 39304 ft 493 kts 285°
2026-05-05 12:15 73.30959 115.23851 39302 ft 493 kts 285°
2026-05-05 12:15 73.32700 115.00780 39299 ft 493 kts 285°
2026-05-05 12:16 73.34414 114.77670 39296 ft 493 kts 285°
2026-05-05 12:16 73.36104 114.54500 39293 ft 493 kts 285°
2026-05-05 12:17 73.37593 114.33756 39300 ft 493 kts 284°
2026-05-05 12:17 73.39212 114.10883 39288 ft 493 kts 284°
2026-05-05 12:18 73.40865 113.87599 39288 ft 493 kts 285°
2026-05-05 12:18 73.42584 113.64363 39282 ft 493 kts 285°
2026-05-05 12:19 73.44280 113.41237 39280 ft 493 kts 285°
2026-05-05 12:19 73.45949 113.17917 39279 ft 493 kts 284°
2026-05-05 12:20 73.47582 112.94581 39277 ft 492 kts 284°
2026-05-05 12:20 73.49190 112.71159 39271 ft 492 kts 284°
2026-05-05 12:21 73.50769 112.47725 39266 ft 492 kts 284°
2026-05-05 12:21 73.52323 112.24247 39264 ft 492 kts 283°
2026-05-05 12:22 73.53848 112.00770 39262 ft 492 kts 283°
2026-05-05 12:22 73.55340 111.77365 39258 ft 491 kts 283°
2026-05-05 12:23 73.56814 111.53786 39255 ft 491 kts 283°
2026-05-05 12:23 73.58260 111.30188 39249 ft 491 kts 282°
2026-05-05 12:24 73.59680 111.06559 39251 ft 491 kts 282°
2026-05-05 12:24 73.61072 110.82900 39246 ft 491 kts 282°
2026-05-05 12:25 73.62437 110.59223 39245 ft 490 kts 282°
2026-05-05 12:25 73.63774 110.35510 39237 ft 490 kts 282°
2026-05-05 12:26 73.65086 110.11764 39239 ft 490 kts 281°
2026-05-05 12:26 73.66362 109.88148 39236 ft 490 kts 281°
2026-05-05 12:27 73.67621 109.64313 39232 ft 490 kts 281°
2026-05-05 12:27 73.68850 109.40501 39228 ft 490 kts 281°
2026-05-05 12:28 73.70054 109.16626 39224 ft 490 kts 280°
2026-05-05 12:28 73.71232 108.92695 39226 ft 490 kts 280°
2026-05-05 12:29 73.72381 108.68771 39218 ft 489 kts 280°
2026-05-05 12:29 73.73497 108.44964 39218 ft 489 kts 279°
2026-05-05 12:30 73.74592 108.21001 39218 ft 489 kts 279°
2026-05-05 12:30 73.75658 107.97041 39211 ft 489 kts 279°
2026-05-05 12:31 73.76697 107.73042 39207 ft 489 kts 279°
2026-05-05 12:31 73.77711 107.48983 39207 ft 489 kts 278°
2026-05-05 12:32 73.78692 107.25019 39202 ft 489 kts 278°
2026-05-05 12:32 73.79652 107.00888 39200 ft 489 kts 278°
2026-05-05 12:33 73.80584 106.76770 39200 ft 489 kts 278°
2026-05-05 12:33 73.81489 106.52592 39198 ft 489 kts 277°
2026-05-05 12:34 73.82367 106.28394 39194 ft 489 kts 277°
2026-05-05 12:34 73.83217 106.04187 39189 ft 489 kts 277°
2026-05-05 12:35 73.84039 105.79947 39190 ft 489 kts 277°
2026-05-05 12:35 73.84831 105.55812 39185 ft 490 kts 276°
2026-05-05 12:36 73.85599 105.31539 39001 ft 487 kts 276°
2026-05-05 12:36 73.85970 105.19455 38786 ft 484 kts 276°
2026-05-05 12:36 73.86333 105.07426 38552 ft 483 kts 276°
2026-05-05 12:37 73.86688 104.95455 38306 ft 481 kts 276°
2026-05-05 12:37 73.87034 104.83522 38107 ft 477 kts 276°
2026-05-05 12:37 73.87371 104.71680 37912 ft 474 kts 275°
2026-05-05 12:37 73.87700 104.59889 37688 ft 472 kts 275°
2026-05-05 12:38 73.88020 104.48183 37475 ft 469 kts 275°
2026-05-05 12:38 73.88332 104.36537 37275 ft 465 kts 275°
2026-05-05 12:38 73.88924 104.13764 37319 ft 458 kts 275°
2026-05-05 12:39 73.89498 103.90685 37336 ft 463 kts 275°
2026-05-05 12:39 73.90047 103.67638 37470 ft 464 kts 274°
2026-05-05 12:40 73.90226 103.59846 37574 ft 463 kts 274°
2026-05-05 12:40 73.90572 103.44515 37814 ft 464 kts 274°
2026-05-05 12:40 73.90826 103.32900 37995 ft 464 kts 274°
2026-05-05 12:40 73.91073 103.21337 38173 ft 465 kts 274°
2026-05-05 12:41 73.91316 103.09675 38358 ft 465 kts 274°
2026-05-05 12:41 73.91552 102.98012 38511 ft 466 kts 274°
2026-05-05 12:41 73.92005 102.74715 38795 ft 466 kts 274°
2026-05-05 12:42 73.92364 102.55294 38947 ft 468 kts 273°
2026-05-05 12:42 73.92639 102.39684 39051 ft 470 kts 273°
2026-05-05 12:42 73.92774 102.31759 39112 ft 470 kts 273°
2026-05-05 12:43 73.93160 102.08096 39263 ft 473 kts 273°
2026-05-05 12:43 73.93522 101.84319 39351 ft 476 kts 272°
2026-05-05 12:44 73.93859 101.60476 39437 ft 478 kts 272°
2026-05-05 12:44 73.94171 101.36456 39525 ft 480 kts 272°
2026-05-05 12:45 73.94458 101.12315 39618 ft 482 kts 272°
2026-05-05 12:45 73.94718 100.88089 39705 ft 483 kts 272°
2026-05-05 12:46 73.94952 100.63763 39796 ft 484 kts 271°
2026-05-05 12:46 73.95159 100.39439 39907 ft 485 kts 271°
2026-05-05 12:47 73.95339 100.15026 39999 ft 485 kts 271°
2026-05-05 12:47 73.95491 99.90582 39996 ft 487 kts 271°
2026-05-05 12:48 73.95608 99.67703 40008 ft 489 kts 270°
2026-05-05 12:48 73.95702 99.44398 40006 ft 491 kts 270°
2026-05-05 12:49 73.95773 99.20711 39998 ft 493 kts 270°
2026-05-05 12:49 73.95819 98.96071 39992 ft 494 kts 270°
2026-05-05 12:50 73.95836 98.71166 39990 ft 495 kts 270°
2026-05-05 12:50 73.95824 98.46254 39983 ft 495 kts 269°
2026-05-05 12:51 73.95784 98.21371 39974 ft 496 kts 269°
2026-05-05 12:51 73.95716 97.96566 39973 ft 496 kts 269°
2026-05-05 12:52 73.95618 97.71643 39970 ft 496 kts 269°
2026-05-05 12:52 73.95492 97.46723 39966 ft 495 kts 268°
2026-05-05 12:53 73.95337 97.21837 39965 ft 495 kts 268°
2026-05-05 12:53 73.95154 96.96958 39960 ft 495 kts 268°
2026-05-05 12:54 73.94832 96.60403 39959 ft 494 kts 268°
2026-05-05 12:55 73.94578 96.35580 39953 ft 494 kts 267°
2026-05-05 12:55 73.94298 96.10928 39953 ft 494 kts 267°
2026-05-05 12:56 73.93988 95.86164 39947 ft 494 kts 267°
2026-05-05 12:56 73.93651 95.61391 39939 ft 494 kts 267°
2026-05-05 12:57 73.93288 95.36607 39937 ft 494 kts 266°
2026-05-05 12:57 73.92802 95.11916 39929 ft 493 kts 265°
2026-05-05 12:58 73.92229 94.87217 39919 ft 493 kts 265°
2026-05-05 12:58 73.91638 94.62539 39916 ft 493 kts 265°
2026-05-05 12:59 73.91033 94.37912 39913 ft 493 kts 264°
2026-05-05 12:59 73.90404 94.13289 39902 ft 493 kts 264°
2026-05-05 13:00 73.89412 93.76516 39901 ft 493 kts 264°
2026-05-05 13:01 73.87983 93.27391 39894 ft 493 kts 263°
2026-05-05 13:01 73.87227 93.02852 39890 ft 493 kts 263°
2026-05-05 13:02 73.86442 92.78322 39884 ft 493 kts 263°
2026-05-05 13:02 73.85631 92.53868 39881 ft 493 kts 263°
2026-05-05 13:03 73.84795 92.29523 39873 ft 494 kts 262°
2026-05-05 13:03 73.83926 92.05045 39871 ft 494 kts 262°
2026-05-05 13:04 73.83030 91.80621 39867 ft 494 kts 262°
2026-05-05 13:04 73.82105 91.56193 39871 ft 494 kts 262°
2026-05-05 13:05 73.81151 91.31773 39861 ft 494 kts 262°
2026-05-05 13:05 73.80171 91.07412 39862 ft 495 kts 261°
2026-05-05 13:06 73.79161 90.83037 39862 ft 495 kts 261°
2026-05-05 13:06 73.78122 90.58649 39861 ft 495 kts 261°
2026-05-05 13:07 73.77063 90.34472 39861 ft 495 kts 261°
2026-05-05 13:07 73.75967 90.10119 39861 ft 495 kts 260°
2026-05-05 13:08 73.74848 89.85885 39861 ft 495 kts 260°
2026-05-05 13:08 73.73717 89.61995 39861 ft 495 kts 260°
2026-05-05 13:09 73.72545 89.37776 39855 ft 495 kts 260°
2026-05-05 13:09 73.71362 89.13595 39856 ft 495 kts 260°
2026-05-05 13:10 73.70210 88.89571 39856 ft 495 kts 260°
2026-05-05 13:10 73.69029 88.65366 39858 ft 495 kts 259°
2026-05-05 13:11 73.67814 88.41173 39857 ft 495 kts 259°
2026-05-05 13:11 73.66579 88.17240 39853 ft 495 kts 259°
2026-05-05 13:12 73.65306 87.93165 39857 ft 495 kts 259°
2026-05-05 13:12 73.64007 87.69120 39854 ft 495 kts 259°
2026-05-05 13:13 73.62679 87.45103 39855 ft 495 kts 258°
2026-05-05 13:13 73.61329 87.21195 39854 ft 495 kts 258°
2026-05-05 13:14 73.59969 86.97630 39852 ft 495 kts 258°
2026-05-05 13:14 73.58920 86.79776 39858 ft 495 kts 258°
2026-05-05 13:15 73.57502 86.56068 39856 ft 496 kts 258°
2026-05-05 13:15 73.56049 86.32270 39858 ft 496 kts 257°
2026-05-05 13:16 73.54568 86.08495 39856 ft 496 kts 257°
2026-05-05 13:16 73.53064 85.84807 39856 ft 496 kts 257°
2026-05-05 13:17 73.51528 85.61100 39855 ft 496 kts 257°
2026-05-05 13:17 73.49964 85.37394 39854 ft 496 kts 257°
2026-05-05 13:18 73.48380 85.13834 39854 ft 496 kts 256°
2026-05-05 13:18 73.46777 84.90421 39855 ft 496 kts 256°
2026-05-05 13:19 73.45139 84.66925 39858 ft 496 kts 256°
2026-05-05 13:19 73.43477 84.43433 39857 ft 496 kts 256°
2026-05-05 13:20 73.41781 84.20014 39858 ft 496 kts 255°
2026-05-05 13:20 73.40054 83.96619 39856 ft 496 kts 255°
2026-05-05 13:21 73.38319 83.73454 39857 ft 496 kts 255°
2026-05-05 13:21 73.36547 83.50174 39861 ft 496 kts 255°
2026-05-05 13:22 73.34748 83.26915 39859 ft 496 kts 255°
2026-05-05 13:22 73.32929 83.03771 39857 ft 496 kts 255°
2026-05-05 13:23 73.31078 82.80616 39860 ft 496 kts 254°
2026-05-05 13:23 73.29205 82.57549 39858 ft 496 kts 254°
2026-05-05 13:24 73.27320 82.34689 39856 ft 496 kts 254°
2026-05-05 13:24 73.25396 82.11723 39856 ft 496 kts 253°
2026-05-05 13:25 73.23446 81.88798 39858 ft 496 kts 253°
2026-05-05 13:25 73.21473 81.65951 39862 ft 496 kts 253°
2026-05-05 13:26 73.19799 81.46825 39861 ft 496 kts 253°
2026-05-05 13:26 73.17789 81.24180 39861 ft 496 kts 253°
2026-05-05 13:27 73.15744 81.01475 39860 ft 496 kts 253°
2026-05-05 13:27 73.13668 80.78754 39859 ft 496 kts 252°
2026-05-05 13:28 73.11572 80.56139 39859 ft 496 kts 252°
2026-05-05 13:28 73.09463 80.33708 39858 ft 496 kts 252°
2026-05-05 13:29 73.07318 80.11206 39857 ft 495 kts 252°
2026-05-05 13:29 73.05150 79.88774 39854 ft 495 kts 252°
2026-05-05 13:30 73.02958 79.66399 39859 ft 495 kts 252°
2026-05-05 13:30 73.00741 79.44080 39859 ft 495 kts 251°
2026-05-05 13:31 72.98502 79.21845 39857 ft 495 kts 251°
2026-05-05 13:31 72.96239 78.99662 39852 ft 495 kts 251°
2026-05-05 13:32 72.93970 78.77702 39858 ft 494 kts 251°
2026-05-05 13:32 72.91661 78.55655 39856 ft 494 kts 251°
2026-05-05 13:33 72.89327 78.33652 39854 ft 494 kts 250°
2026-05-05 13:33 72.86975 78.11752 39853 ft 494 kts 250°
2026-05-05 13:34 72.84597 77.89891 39854 ft 494 kts 250°
2026-05-05 13:34 72.82194 77.68078 39850 ft 494 kts 250°
2026-05-05 13:35 72.79785 77.46483 39850 ft 494 kts 250°
2026-05-05 13:35 72.77339 77.24813 39853 ft 493 kts 250°
2026-05-05 13:36 72.74872 77.03227 39849 ft 493 kts 249°
2026-05-05 13:36 72.72378 76.81665 39851 ft 493 kts 249°
2026-05-05 13:37 72.69867 76.60213 39856 ft 493 kts 249°
2026-05-05 13:37 72.67331 76.38809 39851 ft 493 kts 249°
2026-05-05 13:38 72.64790 76.17604 39841 ft 493 kts 249°
2026-05-05 13:38 72.62209 75.96313 39845 ft 493 kts 249°
2026-05-05 13:39 72.59612 75.75134 39849 ft 492 kts 248°
2026-05-05 13:39 72.56991 75.54000 39841 ft 492 kts 248°
2026-05-05 13:40 72.54347 75.32913 39839 ft 492 kts 248°
2026-05-05 13:40 72.51720 75.12177 39846 ft 492 kts 248°
2026-05-05 13:41 72.49035 74.91292 39838 ft 492 kts 248°
2026-05-05 13:41 72.46342 74.70569 39841 ft 492 kts 248°
2026-05-05 13:42 72.43614 74.49785 39839 ft 491 kts 247°
2026-05-05 13:42 72.40868 74.29069 39839 ft 491 kts 247°
2026-05-05 13:43 72.38104 74.08444 39838 ft 491 kts 247°
2026-05-05 13:43 72.35360 73.88188 39836 ft 491 kts 247°
2026-05-05 13:44 72.32561 73.67743 39836 ft 490 kts 246°
2026-05-05 13:44 72.29739 73.47348 39836 ft 490 kts 246°
2026-05-05 13:45 72.26921 73.27192 39833 ft 490 kts 246°
2026-05-05 13:45 72.24057 73.06915 39836 ft 490 kts 246°
2026-05-05 13:46 72.21182 72.86774 39838 ft 489 kts 246°
2026-05-05 13:46 72.18283 72.66673 39835 ft 489 kts 246°
2026-05-05 13:47 72.15389 72.46808 39837 ft 489 kts 246°
2026-05-05 13:47 72.13250 72.32251 39837 ft 488 kts 245°
2026-05-05 13:48 72.10336 72.12587 39838 ft 488 kts 245°
2026-05-05 13:48 72.07363 71.92733 39841 ft 488 kts 245°
2026-05-05 13:49 72.04399 71.73127 39843 ft 487 kts 245°
2026-05-05 13:49 72.01389 71.53417 39845 ft 487 kts 245°
2026-05-05 13:50 71.98364 71.33803 39843 ft 487 kts 245°
2026-05-05 13:50 71.95327 71.14299 39849 ft 486 kts 245°
2026-05-05 13:51 71.92266 70.94827 39849 ft 486 kts 244°
2026-05-05 13:51 71.89212 70.75592 39847 ft 486 kts 244°
2026-05-05 13:52 71.86119 70.56286 39846 ft 485 kts 244°
2026-05-05 13:52 71.83009 70.37062 39852 ft 485 kts 244°
2026-05-05 13:53 71.79885 70.17934 39855 ft 485 kts 244°
2026-05-05 13:53 71.76744 69.98880 39855 ft 484 kts 244°
2026-05-05 13:54 71.73583 69.79886 39855 ft 484 kts 244°
2026-05-05 13:54 71.70405 69.60960 39857 ft 484 kts 243°
2026-05-05 13:55 71.67232 69.42235 39860 ft 484 kts 243°
2026-05-05 13:55 71.64021 69.23462 39863 ft 484 kts 243°
2026-05-05 13:56 71.61049 69.06235 39862 ft 484 kts 243°
2026-05-05 13:56 71.58570 68.91974 39866 ft 483 kts 243°
2026-05-05 13:57 71.55315 68.73395 39864 ft 483 kts 243°
2026-05-05 13:57 71.52044 68.54896 39864 ft 483 kts 243°
2026-05-05 13:58 71.48753 68.36442 39866 ft 483 kts 242°
2026-05-05 13:58 71.45449 68.18080 39869 ft 482 kts 242°
2026-05-05 13:59 71.40453 67.90619 39870 ft 482 kts 242°
2026-05-05 14:00 71.35992 67.66401 39874 ft 482 kts 242°
2026-05-05 14:00 71.32081 67.45394 39888 ft 481 kts 242°
2026-05-05 14:01 71.28698 67.27385 39874 ft 481 kts 241°
2026-05-05 14:01 71.25299 67.09428 39867 ft 481 kts 241°
2026-05-05 14:02 71.21874 66.91589 39869 ft 481 kts 239°
2026-05-05 14:02 71.18102 66.75364 39888 ft 482 kts 235°
2026-05-05 14:03 71.14221 66.59569 39871 ft 482 kts 235°
2026-05-05 14:03 71.10348 66.43787 39871 ft 482 kts 235°
2026-05-05 14:04 71.06349 66.27513 39871 ft 481 kts 235°
2026-05-05 14:04 71.02286 66.11086 39878 ft 481 kts 234°
2026-05-05 14:05 70.98237 65.94847 39885 ft 481 kts 234°
2026-05-05 14:05 70.94157 65.78599 39885 ft 481 kts 234°
2026-05-05 14:06 70.90058 65.62434 39879 ft 481 kts 234°
2026-05-05 14:06 70.85948 65.46366 39876 ft 480 kts 234°
2026-05-05 14:07 70.81836 65.30393 39880 ft 480 kts 234°
2026-05-05 14:07 70.77701 65.14440 39885 ft 480 kts 234°
2026-05-05 14:08 70.73557 64.98568 39888 ft 479 kts 234°
2026-05-05 14:08 70.69412 64.82812 39884 ft 479 kts 233°
2026-05-05 14:09 70.65244 64.67084 39886 ft 479 kts 233°
2026-05-05 14:09 70.61078 64.51477 39889 ft 478 kts 233°
2026-05-05 14:10 70.56891 64.35912 39889 ft 478 kts 233°
2026-05-05 14:10 70.52725 64.20534 39894 ft 477 kts 233°
2026-05-05 14:11 70.49213 64.07654 39895 ft 477 kts 233°
2026-05-05 14:11 70.44323 63.89850 39897 ft 476 kts 233°
2026-05-05 14:12 70.40785 63.77062 39898 ft 476 kts 233°
2026-05-05 14:12 70.36565 63.61909 39903 ft 476 kts 232°
2026-05-05 14:13 70.32343 63.46856 39753 ft 477 kts 232°
2026-05-05 14:13 70.30222 63.39334 39638 ft 474 kts 232°
2026-05-05 14:13 70.28105 63.31856 39520 ft 470 kts 232°
2026-05-05 14:14 70.26005 63.24462 39403 ft 468 kts 232°
2026-05-05 14:14 70.23911 63.17114 39292 ft 466 kts 232°
2026-05-05 14:14 70.21823 63.09814 39181 ft 465 kts 232°
2026-05-05 14:14 70.19738 63.02546 39073 ft 464 kts 232°
2026-05-05 14:15 70.17651 62.95294 38963 ft 463 kts 232°
2026-05-05 14:15 70.15562 62.88060 38861 ft 463 kts 232°
2026-05-05 14:15 70.11372 62.73626 38709 ft 466 kts 232°
2026-05-05 14:16 70.07149 62.59176 38637 ft 471 kts 232°
2026-05-05 14:16 70.02861 62.44611 38628 ft 471 kts 232°
2026-05-05 14:17 69.98568 62.30123 38620 ft 471 kts 232°
2026-05-05 14:17 69.94270 62.15705 38623 ft 470 kts 232°
2026-05-05 14:18 69.89988 62.01360 38627 ft 469 kts 232°
2026-05-05 14:18 69.85736 61.87083 38621 ft 468 kts 232°
2026-05-05 14:19 69.81442 61.72762 38630 ft 468 kts 231°
2026-05-05 14:19 69.77194 61.58534 38626 ft 466 kts 234°
2026-05-05 14:20 69.73635 61.43149 38629 ft 463 kts 242°
2026-05-05 14:20 69.70355 61.27183 38630 ft 463 kts 241°
2026-05-05 14:21 69.67026 61.11252 38631 ft 463 kts 241°
2026-05-05 14:21 69.63675 60.95417 38628 ft 464 kts 240°
2026-05-05 14:22 69.60302 60.79607 38636 ft 465 kts 240°
2026-05-05 14:22 69.56911 60.63816 38629 ft 465 kts 240°
2026-05-05 14:23 69.53505 60.48064 38625 ft 466 kts 240°
2026-05-05 14:23 69.50094 60.32350 38626 ft 466 kts 240°
2026-05-05 14:24 69.46700 60.16741 38625 ft 466 kts 240°
2026-05-05 14:24 69.43274 60.01093 38617 ft 463 kts 240°
2026-05-05 14:25 69.39871 59.85673 38611 ft 458 kts 240°
2026-05-05 14:25 69.36472 59.70381 38747 ft 458 kts 240°
2026-05-05 14:26 69.34768 59.62749 38863 ft 459 kts 239°
2026-05-05 14:26 69.33055 59.55107 38955 ft 460 kts 239°
2026-05-05 14:26 69.31329 59.47438 39069 ft 462 kts 239°
2026-05-05 14:26 69.29600 59.39780 39178 ft 463 kts 239°
2026-05-05 14:27 69.27865 59.32124 39290 ft 464 kts 239°
2026-05-05 14:27 69.26122 59.24457 39392 ft 465 kts 239°
2026-05-05 14:27 69.24366 59.16762 39500 ft 465 kts 239°
2026-05-05 14:27 69.22607 59.09069 39610 ft 466 kts 239°
2026-05-05 14:28 69.20842 59.01388 39720 ft 466 kts 239°
2026-05-05 14:28 69.19077 58.93778 39826 ft 467 kts 238°
2026-05-05 14:28 69.17257 58.86183 39938 ft 467 kts 238°
2026-05-05 14:28 69.15419 58.78662 40051 ft 467 kts 237°
2026-05-05 14:29 69.13591 58.71236 40162 ft 467 kts 237°
2026-05-05 14:29 69.11741 58.63735 40265 ft 467 kts 237°
2026-05-05 14:29 69.09865 58.56127 40383 ft 467 kts 237°
2026-05-05 14:29 69.08045 58.48752 40497 ft 467 kts 237°
2026-05-05 14:30 69.06197 58.41276 40605 ft 467 kts 237°
2026-05-05 14:30 69.04351 58.33828 40729 ft 466 kts 237°
2026-05-05 14:30 69.00649 58.18967 40880 ft 467 kts 237°
2026-05-05 14:31 68.96922 58.04109 41016 ft 468 kts 237°
2026-05-05 14:31 68.93170 57.89244 41157 ft 469 kts 237°
2026-05-05 14:32 68.89424 57.74422 41301 ft 468 kts 237°
2026-05-05 14:32 68.85776 57.59578 41396 ft 470 kts 238°
2026-05-05 14:33 68.82079 57.44569 41391 ft 473 kts 237°
2026-05-05 14:33 68.78339 57.29554 41388 ft 475 kts 237°
2026-05-05 14:34 68.74572 57.14552 41387 ft 477 kts 237°
2026-05-05 14:34 68.70773 56.99522 41381 ft 479 kts 237°
2026-05-05 14:35 68.66958 56.84441 41379 ft 480 kts 237°
2026-05-05 14:35 68.63135 56.69374 41379 ft 481 kts 237°
2026-05-05 14:36 68.59294 56.54338 41376 ft 482 kts 237°
2026-05-05 14:36 68.55455 56.39426 41458 ft 481 kts 237°
2026-05-05 14:37 68.51594 56.24530 41594 ft 479 kts 237°
2026-05-05 14:37 68.47736 56.09748 41736 ft 477 kts 237°
2026-05-05 14:38 68.43881 55.95075 41841 ft 476 kts 236°
2026-05-05 14:38 68.40017 55.80466 41853 ft 477 kts 236°
2026-05-05 14:39 68.36121 55.65834 41854 ft 478 kts 236°
2026-05-05 14:39 68.32238 55.51349 41851 ft 478 kts 236°
2026-05-05 14:40 68.28312 55.36799 41848 ft 479 kts 236°
2026-05-05 14:40 68.24366 55.22271 41844 ft 480 kts 236°
2026-05-05 14:41 68.20416 55.07811 41834 ft 480 kts 235°
2026-05-05 14:41 68.16559 54.93795 41827 ft 480 kts 235°
2026-05-05 14:42 68.12570 54.79390 41828 ft 480 kts 235°
2026-05-05 14:42 68.08576 54.65039 41823 ft 480 kts 235°
2026-05-05 14:43 68.04572 54.50745 41812 ft 480 kts 235°
2026-05-05 14:43 68.00550 54.36480 41811 ft 481 kts 235°
2026-05-05 14:44 67.96516 54.22261 41792 ft 481 kts 234°
2026-05-05 14:44 67.92494 54.08169 41805 ft 481 kts 234°
2026-05-05 14:45 67.88422 53.94082 41793 ft 481 kts 234°
2026-05-05 14:45 67.84314 53.80050 41783 ft 481 kts 234°
2026-05-05 14:46 67.80207 53.66088 41775 ft 481 kts 234°
2026-05-05 14:46 67.76082 53.52133 41764 ft 481 kts 234°
2026-05-05 14:47 67.71976 53.38329 41761 ft 481 kts 233°
2026-05-05 14:47 67.67847 53.24530 41753 ft 481 kts 233°
2026-05-05 14:48 67.64123 53.10006 41757 ft 478 kts 242°
2026-05-05 14:48 67.61283 52.94250 41742 ft 476 kts 250°
2026-05-05 14:49 67.58959 52.77960 41739 ft 476 kts 250°
2026-05-05 14:49 67.56642 52.61773 41733 ft 476 kts 250°
2026-05-05 14:50 67.54273 52.45589 41725 ft 477 kts 249°
2026-05-05 14:50 67.51876 52.29431 41720 ft 477 kts 249°
2026-05-05 14:51 67.49469 52.13321 41720 ft 477 kts 249°
2026-05-05 14:51 67.47031 51.97237 41714 ft 477 kts 248°
2026-05-05 14:52 67.44490 51.81223 41713 ft 477 kts 248°
2026-05-05 14:52 67.41944 51.65403 41706 ft 477 kts 248°
2026-05-05 14:53 67.39375 51.49481 41703 ft 477 kts 248°
2026-05-05 14:53 67.36798 51.33595 41698 ft 477 kts 248°
2026-05-05 14:54 67.34202 51.17724 41696 ft 477 kts 248°
2026-05-05 14:54 67.31591 51.01872 41696 ft 477 kts 248°
2026-05-05 14:55 67.28986 50.86062 41685 ft 478 kts 248°
2026-05-05 14:55 67.26426 50.70199 41693 ft 478 kts 248°
2026-05-05 14:56 67.24297 50.57044 41686 ft 478 kts 248°
2026-05-05 14:56 67.21711 50.41231 41685 ft 478 kts 248°
2026-05-05 14:57 67.18679 50.22897 41686 ft 478 kts 248°
2026-05-05 14:57 67.16476 50.09695 41687 ft 478 kts 247°
2026-05-05 14:58 67.13854 49.94096 41686 ft 478 kts 247°
2026-05-05 14:58 67.11201 49.78430 41684 ft 478 kts 247°
2026-05-05 14:59 67.08528 49.62777 41684 ft 478 kts 247°
2026-05-05 14:59 67.05841 49.47158 41681 ft 478 kts 247°
2026-05-05 15:00 67.03597 49.34215 41681 ft 478 kts 246°
2026-05-05 15:00 67.00426 49.16057 41685 ft 478 kts 246°
2026-05-05 15:01 66.97712 49.00652 41683 ft 478 kts 246°
2026-05-05 15:01 66.94965 48.85179 41688 ft 478 kts 246°
2026-05-05 15:02 66.92209 48.69770 41683 ft 478 kts 246°
2026-05-05 15:02 66.89437 48.54382 41683 ft 478 kts 246°
2026-05-05 15:03 66.86651 48.39029 41686 ft 478 kts 245°
2026-05-05 15:03 66.83834 48.23713 41690 ft 478 kts 245°
2026-05-05 15:04 66.81005 48.08466 41688 ft 478 kts 245°
2026-05-05 15:04 66.78164 47.93228 41695 ft 478 kts 245°
2026-05-05 15:05 66.73698 47.70706 41690 ft 478 kts 239°
2026-05-05 15:06 66.70237 47.56497 41696 ft 478 kts 239°
2026-05-05 15:06 66.66724 47.42214 41700 ft 478 kts 239°
2026-05-05 15:07 66.63228 47.27984 41699 ft 478 kts 239°
2026-05-05 15:07 66.59726 47.13766 41705 ft 478 kts 239°
2026-05-05 15:08 66.56212 46.99585 41706 ft 478 kts 239°
2026-05-05 15:08 66.52685 46.85442 41709 ft 478 kts 239°
2026-05-05 15:09 66.49139 46.71323 41710 ft 477 kts 239°
2026-05-05 15:09 66.45589 46.57278 41717 ft 478 kts 238°
2026-05-05 15:10 66.42043 46.43334 41719 ft 478 kts 238°
2026-05-05 15:10 66.38461 46.29341 41726 ft 478 kts 238°
2026-05-05 15:11 66.34872 46.15408 41730 ft 478 kts 238°
2026-05-05 15:11 66.31268 46.01503 41728 ft 478 kts 238°
2026-05-05 15:12 66.27670 45.87711 41738 ft 478 kts 238°
2026-05-05 15:12 66.24044 45.73895 41739 ft 478 kts 238°
2026-05-05 15:13 66.20405 45.60116 41739 ft 478 kts 238°
2026-05-05 15:13 66.16753 45.46361 41745 ft 478 kts 238°
2026-05-05 15:14 66.13081 45.32631 41743 ft 478 kts 237°
2026-05-05 15:14 66.09391 45.18970 41748 ft 478 kts 237°
2026-05-05 15:15 66.05692 45.05357 41750 ft 478 kts 237°
2026-05-05 15:15 66.01978 44.91759 41757 ft 478 kts 237°
2026-05-05 15:16 65.98256 44.78213 41757 ft 478 kts 237°
2026-05-05 15:16 65.94530 44.64733 41758 ft 478 kts 237°
2026-05-05 15:17 65.90783 44.51257 41762 ft 478 kts 237°
2026-05-05 15:17 65.87053 44.37913 41758 ft 478 kts 237°
2026-05-05 15:18 65.83285 44.24546 41760 ft 478 kts 236°
2026-05-05 15:18 65.79379 44.11442 41758 ft 478 kts 234°
2026-05-05 15:19 65.75418 43.98467 41760 ft 477 kts 234°
2026-05-05 15:19 65.71464 43.85507 41764 ft 477 kts 234°
2026-05-05 15:20 65.67499 43.72520 41759 ft 477 kts 234°
2026-05-05 15:20 65.63541 43.59624 41766 ft 477 kts 234°
2026-05-05 15:21 65.59562 43.46736 41761 ft 477 kts 234°
2026-05-05 15:21 65.55586 43.33927 41761 ft 477 kts 234°
2026-05-05 15:22 65.51595 43.21153 41760 ft 477 kts 234°
2026-05-05 15:22 65.47613 43.08525 41761 ft 476 kts 234°
2026-05-05 15:23 65.43594 42.95854 41759 ft 476 kts 233°
2026-05-05 15:23 65.39571 42.83220 41765 ft 476 kts 233°
2026-05-05 15:24 65.35527 42.70631 41763 ft 476 kts 232°
2026-05-05 15:24 65.31135 42.58711 41767 ft 477 kts 229°
2026-05-05 15:25 65.26660 42.46942 41760 ft 477 kts 229°
2026-05-05 15:25 65.22210 42.35188 41765 ft 477 kts 229°
2026-05-05 15:26 65.17775 42.23424 41781 ft 477 kts 230°
2026-05-05 15:26 65.13415 42.11514 41759 ft 477 kts 230°
2026-05-05 15:27 65.09046 41.99601 41750 ft 478 kts 230°
2026-05-05 15:27 65.04689 41.87840 41753 ft 478 kts 230°
2026-05-05 15:28 65.00291 41.76049 41770 ft 478 kts 230°
2026-05-05 15:28 64.95881 41.64284 41758 ft 478 kts 230°
2026-05-05 15:29 64.91463 41.52548 41759 ft 478 kts 230°
2026-05-05 15:29 64.87025 41.40882 41765 ft 478 kts 229°
2026-05-05 15:30 64.82551 41.29284 41759 ft 478 kts 229°
2026-05-05 15:30 64.78072 41.17724 41762 ft 478 kts 229°
2026-05-05 15:31 64.73620 41.06277 41766 ft 478 kts 229°
2026-05-05 15:31 64.69132 40.94790 41773 ft 478 kts 229°
2026-05-05 15:32 64.64640 40.83347 41776 ft 478 kts 229°
2026-05-05 15:32 64.60157 40.71883 41768 ft 478 kts 231°
2026-05-05 15:33 64.56163 40.59539 41774 ft 476 kts 235°
2026-05-05 15:33 64.52280 40.47053 41774 ft 476 kts 235°
2026-05-05 15:34 64.48363 40.34613 41772 ft 476 kts 234°
2026-05-05 15:34 64.44435 40.22257 41769 ft 476 kts 234°
2026-05-05 15:35 64.40499 40.09946 41768 ft 476 kts 234°
2026-05-05 15:35 64.36551 39.97652 41771 ft 476 kts 234°
2026-05-05 15:36 64.32616 39.85477 41774 ft 476 kts 234°
2026-05-05 15:36 64.28636 39.73298 41773 ft 476 kts 234°
2026-05-05 15:37 64.24644 39.61161 41780 ft 476 kts 234°
2026-05-05 15:37 64.20639 39.49030 41775 ft 475 kts 234°
2026-05-05 15:38 64.16634 39.36960 41778 ft 475 kts 234°
2026-05-05 15:38 64.12619 39.24922 41782 ft 475 kts 233°
2026-05-05 15:39 64.08620 39.12991 41782 ft 475 kts 233°
2026-05-05 15:39 64.04583 39.01020 41785 ft 475 kts 233°
2026-05-05 15:40 64.00539 38.89106 41786 ft 475 kts 233°
2026-05-05 15:40 63.96479 38.77197 41783 ft 476 kts 233°
2026-05-05 15:41 63.93100 38.67329 41792 ft 476 kts 233°
2026-05-05 15:41 63.89023 38.55477 41796 ft 476 kts 233°
2026-05-05 15:42 63.84922 38.43621 41796 ft 477 kts 233°
2026-05-05 15:42 63.80820 38.31822 41799 ft 477 kts 233°
2026-05-05 15:43 63.76696 38.20020 41800 ft 477 kts 233°
2026-05-05 15:43 63.72566 38.08267 41804 ft 477 kts 233°
2026-05-05 15:44 63.68453 37.96621 41809 ft 477 kts 233°
2026-05-05 15:44 63.64305 37.84938 41806 ft 477 kts 232°
2026-05-05 15:45 63.60147 37.73285 41811 ft 477 kts 232°
2026-05-05 15:45 63.55979 37.61666 41818 ft 477 kts 232°
2026-05-05 15:46 63.51810 37.50101 41821 ft 477 kts 232°
2026-05-05 15:46 63.47631 37.38569 41822 ft 476 kts 232°
2026-05-05 15:47 63.43446 37.27072 41830 ft 476 kts 232°
2026-05-05 15:47 63.39260 37.15642 41833 ft 476 kts 232°
2026-05-05 15:48 63.35058 37.04235 41833 ft 476 kts 232°
2026-05-05 15:48 63.30881 36.92942 41837 ft 475 kts 232°
2026-05-05 15:49 63.26670 36.81605 41837 ft 475 kts 232°
2026-05-05 15:49 63.22445 36.70297 41838 ft 475 kts 231°
2026-05-05 15:50 63.17788 36.59885 41855 ft 476 kts 224°
2026-05-05 15:50 63.12830 36.50147 41851 ft 476 kts 224°
2026-05-05 15:51 63.07887 36.40408 41856 ft 476 kts 224°
2026-05-05 15:51 63.02948 36.30655 41862 ft 476 kts 224°
2026-05-05 15:52 62.98016 36.20950 41870 ft 475 kts 224°
2026-05-05 15:52 62.93099 36.11322 41866 ft 475 kts 224°
2026-05-05 15:53 62.88157 36.01691 41878 ft 475 kts 224°
2026-05-05 15:53 62.83230 35.92050 41883 ft 474 kts 224°
2026-05-05 15:54 62.78320 35.82398 41888 ft 474 kts 224°
2026-05-05 15:54 62.73404 35.72780 41891 ft 474 kts 224°
2026-05-05 15:55 62.68485 35.63213 41893 ft 474 kts 224°
2026-05-05 15:55 62.63561 35.53688 41900 ft 474 kts 224°
2026-05-05 15:56 62.58663 35.44255 41902 ft 473 kts 224°
2026-05-05 15:56 62.53727 35.34792 41902 ft 473 kts 224°
2026-05-05 15:57 62.48790 35.25369 41906 ft 472 kts 224°
2026-05-05 15:57 62.43853 35.15984 41911 ft 472 kts 224°
2026-05-05 15:58 62.38916 35.06653 41918 ft 472 kts 223°
2026-05-05 15:58 62.33933 34.97445 41914 ft 471 kts 223°
2026-05-05 15:59 62.28939 34.88310 41922 ft 471 kts 223°
2026-05-05 15:59 62.23958 34.79216 41920 ft 470 kts 223°
2026-05-05 16:00 62.18969 34.70132 41922 ft 470 kts 223°
2026-05-05 16:00 62.13983 34.61090 41948 ft 469 kts 223°
2026-05-05 16:01 62.08997 34.52089 41937 ft 469 kts 222°
2026-05-05 16:01 62.04037 34.43175 41946 ft 469 kts 222°
2026-05-05 16:02 61.99050 34.34252 41966 ft 468 kts 222°
2026-05-05 16:02 61.94057 34.25353 41952 ft 468 kts 222°
2026-05-05 16:03 61.89173 34.16249 41957 ft 466 kts 227°
2026-05-05 16:03 61.84970 34.05850 41963 ft 464 kts 234°
2026-05-05 16:04 61.81106 33.94943 41966 ft 463 kts 234°
2026-05-05 16:04 61.77215 33.84056 41957 ft 464 kts 234°
2026-05-05 16:05 61.73322 33.73275 41954 ft 464 kts 233°
2026-05-05 16:05 61.69396 33.62472 41954 ft 464 kts 233°
2026-05-05 16:06 61.65458 33.51685 41956 ft 464 kts 233°
2026-05-05 16:06 61.61511 33.40921 41955 ft 465 kts 233°
2026-05-05 16:07 61.57548 33.30161 41961 ft 465 kts 233°
2026-05-05 16:07 61.53576 33.19428 41961 ft 466 kts 233°
2026-05-05 16:08 61.49594 33.08712 41962 ft 466 kts 233°
2026-05-05 16:08 61.45320 32.98504 41962 ft 468 kts 225°
2026-05-05 16:09 61.40622 32.89179 41970 ft 468 kts 225°
2026-05-05 16:09 61.35906 32.79778 41968 ft 469 kts 226°
2026-05-05 16:10 61.31199 32.70369 41976 ft 469 kts 224°
2026-05-05 16:10 61.28587 32.66296 41971 ft 472 kts 212°
2026-05-05 16:10 61.25607 32.63335 41984 ft 476 kts 204°
2026-05-05 16:11 61.19102 32.60357 41978 ft 486 kts 188°
2026-05-05 16:12 61.05557 32.58876 41981 ft 487 kts 188°
2026-05-05 16:13 60.88640 32.56470 41993 ft 488 kts 188°
2026-05-05 16:13 60.81906 32.55500 41991 ft 488 kts 188°
2026-05-05 16:14 60.68501 32.52195 41994 ft 481 kts 200°
2026-05-05 16:15 60.55657 32.44600 41997 ft 480 kts 199°
2026-05-05 16:16 60.42792 32.37223 42010 ft 480 kts 199°
2026-05-05 16:17 60.33170 32.31753 42006 ft 480 kts 199°
2026-05-05 16:18 60.23516 32.26292 42016 ft 480 kts 199°
2026-05-05 16:19 60.13858 32.20890 42018 ft 480 kts 199°
2026-05-05 16:19 60.04210 32.15522 42024 ft 480 kts 199°
2026-05-05 16:20 59.91335 32.08309 42024 ft 480 kts 199°
2026-05-05 16:22 59.75221 31.99445 42025 ft 480 kts 199°
2026-05-05 16:23 59.62328 31.92458 42022 ft 480 kts 199°
2026-05-05 16:23 59.53755 31.87717 42024 ft 480 kts 199°
2026-05-05 16:24 59.47313 31.84203 42024 ft 481 kts 198°
2026-05-05 16:25 59.37539 31.79612 42020 ft 482 kts 197°
2026-05-05 16:25 59.27745 31.75075 42013 ft 482 kts 197°
2026-05-05 16:26 59.14745 31.68989 42019 ft 482 kts 197°
2026-05-05 16:27 59.08219 31.65965 42013 ft 482 kts 197°
2026-05-05 16:27 59.01690 31.62990 42017 ft 482 kts 197°
2026-05-05 16:28 58.95155 31.60015 42016 ft 482 kts 197°
2026-05-05 16:28 58.88635 31.57027 42012 ft 482 kts 197°
2026-05-05 16:29 58.82100 31.54035 42020 ft 482 kts 197°
2026-05-05 16:29 58.75573 31.51062 42017 ft 482 kts 197°
2026-05-05 16:30 58.69038 31.48097 42019 ft 482 kts 197°
2026-05-05 16:30 58.62543 31.45163 42022 ft 482 kts 197°
2026-05-05 16:31 58.56014 31.42218 42025 ft 482 kts 197°
2026-05-05 16:31 58.49470 31.39273 42022 ft 483 kts 197°
2026-05-05 16:32 58.42938 31.36345 42023 ft 483 kts 197°
2026-05-05 16:32 58.36390 31.33421 42032 ft 482 kts 197°
2026-05-05 16:33 58.29858 31.30514 42025 ft 482 kts 197°
2026-05-05 16:33 58.23316 31.27617 42036 ft 482 kts 196°
2026-05-05 16:34 58.16767 31.24729 42034 ft 482 kts 196°
2026-05-05 16:34 58.10260 31.21868 42036 ft 482 kts 196°
2026-05-05 16:35 58.03721 31.19002 42074 ft 483 kts 197°
2026-05-05 16:35 57.97157 31.16137 42047 ft 483 kts 197°
2026-05-05 16:36 57.90602 31.13286 42041 ft 483 kts 197°
2026-05-05 16:36 57.84047 31.10445 42048 ft 483 kts 197°
2026-05-05 16:37 57.77536 31.07633 42052 ft 483 kts 196°
2026-05-05 16:37 57.70997 31.04813 42054 ft 482 kts 197°
2026-05-05 16:38 57.64458 31.01991 42055 ft 482 kts 196°
2026-05-05 16:38 57.57915 30.99176 42056 ft 482 kts 196°
2026-05-05 16:39 57.51374 30.96374 42063 ft 482 kts 196°
2026-05-05 16:39 57.44844 30.93587 42062 ft 482 kts 196°
2026-05-05 16:40 57.38307 30.90811 42062 ft 481 kts 195°
2026-05-05 16:40 57.31729 30.88401 42063 ft 482 kts 194°
2026-05-05 16:41 57.25123 30.86184 42067 ft 482 kts 194°
2026-05-05 16:41 57.18564 30.83944 42070 ft 481 kts 194°
2026-05-05 16:42 57.11980 30.81659 42069 ft 481 kts 194°
2026-05-05 16:42 57.05392 30.79370 42070 ft 481 kts 194°
2026-05-05 16:43 56.98817 30.77096 42072 ft 481 kts 194°
2026-05-05 16:43 56.92244 30.74834 42082 ft 481 kts 194°
2026-05-05 16:44 56.85671 30.72578 42078 ft 481 kts 194°
2026-05-05 16:44 56.79093 30.70349 42083 ft 481 kts 192°
2026-05-05 16:45 56.72455 30.68704 42082 ft 482 kts 190°
2026-05-05 16:45 56.65799 30.67195 42089 ft 481 kts 190°
2026-05-05 16:46 56.59178 30.65666 42090 ft 481 kts 191°
2026-05-05 16:46 56.52538 30.64112 42091 ft 481 kts 191°
2026-05-05 16:47 56.45896 30.62559 42096 ft 481 kts 191°
2026-05-05 16:47 56.39240 30.61011 42094 ft 481 kts 191°
2026-05-05 16:48 56.32587 30.59563 42097 ft 481 kts 189°
2026-05-05 16:48 56.25941 30.58232 42102 ft 481 kts 189°
2026-05-05 16:49 56.19280 30.56883 42100 ft 481 kts 189°
2026-05-05 16:49 56.12617 30.55523 42096 ft 481 kts 189°
2026-05-05 16:50 56.06004 30.54189 42100 ft 481 kts 189°
2026-05-05 16:50 55.99341 30.52856 42104 ft 481 kts 189°
2026-05-05 16:51 55.92683 30.51525 42100 ft 481 kts 189°
2026-05-05 16:51 55.86030 30.50199 42107 ft 481 kts 189°
2026-05-05 16:52 55.79379 30.48876 42103 ft 481 kts 189°
2026-05-05 16:52 55.72722 30.47495 42107 ft 481 kts 189°
2026-05-05 16:53 55.66124 30.46104 42106 ft 481 kts 189°
2026-05-05 16:53 55.59481 30.44721 42111 ft 481 kts 189°
2026-05-05 16:54 55.52871 30.43030 42104 ft 478 kts 196°
2026-05-05 16:54 55.46582 30.39366 42111 ft 474 kts 205°
2026-05-05 16:55 55.40721 30.34122 42113 ft 473 kts 210°
2026-05-05 16:55 55.34933 30.28631 42129 ft 473 kts 210°
2026-05-05 16:56 55.29119 30.23179 42121 ft 472 kts 210°
2026-05-05 16:56 55.23378 30.17864 42117 ft 467 kts 210°
2026-05-05 16:57 55.17654 30.12594 42117 ft 464 kts 210°
2026-05-05 16:57 55.11936 30.07345 42131 ft 464 kts 210°
2026-05-05 16:58 55.06198 30.02092 42136 ft 466 kts 210°
2026-05-05 16:58 55.00428 29.96827 42130 ft 468 kts 209°
2026-05-05 16:59 54.94674 29.91593 42125 ft 469 kts 209°
2026-05-05 16:59 54.88873 29.86335 42128 ft 470 kts 209°
2026-05-05 17:00 54.83077 29.81097 42129 ft 470 kts 209°
2026-05-05 17:00 54.77263 29.75859 42133 ft 470 kts 209°
2026-05-05 17:01 54.71447 29.70639 42135 ft 470 kts 209°
2026-05-05 17:01 54.65639 29.65461 42142 ft 470 kts 209°
2026-05-05 17:02 54.59825 29.60299 42136 ft 469 kts 209°
2026-05-05 17:02 54.54021 29.55158 42145 ft 469 kts 209°
2026-05-05 17:03 54.48216 29.50031 42146 ft 468 kts 209°
2026-05-05 17:03 54.42456 29.44958 42136 ft 468 kts 209°
2026-05-05 17:04 54.36657 29.39865 42149 ft 468 kts 209°
2026-05-05 17:04 54.30849 29.34785 42139 ft 467 kts 209°
2026-05-05 17:05 54.25060 29.29728 42149 ft 467 kts 208°
2026-05-05 17:05 54.19266 29.24680 42150 ft 467 kts 208°
2026-05-05 17:06 54.13858 29.18878 42156 ft 461 kts 226°
2026-05-05 17:06 54.11851 29.14636 42142 ft 460 kts 241°
2026-05-05 17:06 54.10474 29.09738 42169 ft 458 kts 246°
2026-05-05 17:07 54.07880 28.99753 42162 ft 462 kts 246°
2026-05-05 17:07 54.05202 28.89794 42153 ft 464 kts 245°
2026-05-05 17:08 54.02459 28.79815 42151 ft 466 kts 245°
2026-05-05 17:08 54.00165 28.71505 42151 ft 467 kts 245°
2026-05-05 17:09 53.97398 28.61516 42149 ft 468 kts 245°
2026-05-05 17:09 53.96461 28.58138 42146 ft 468 kts 245°
2026-05-05 17:10 53.94348 28.50538 42143 ft 468 kts 245°
2026-05-05 17:10 53.91029 28.41120 42122 ft 467 kts 223°
2026-05-05 17:11 53.88324 28.38105 42134 ft 469 kts 202°
2026-05-05 17:11 53.85139 28.36910 42128 ft 473 kts 182°
2026-05-05 17:11 53.81861 28.37582 42149 ft 478 kts 168°
2026-05-05 17:11 53.78681 28.39330 42149 ft 482 kts 160°
2026-05-05 17:12 53.75699 28.41970 42123 ft 488 kts 143°
2026-05-05 17:12 53.73312 28.46045 42163 ft 492 kts 130°
2026-05-05 17:12 53.69069 28.55214 42151 ft 495 kts 133°
2026-05-05 17:13 53.66582 28.59035 42134 ft 488 kts 152°
2026-05-05 17:13 53.63448 28.61205 42146 ft 479 kts 172°
2026-05-05 17:13 53.60159 28.61381 42143 ft 471 kts 193°
2026-05-05 17:13 53.57135 28.59653 42145 ft 465 kts 213°
2026-05-05 17:14 53.54665 28.56215 42148 ft 460 kts 233°
2026-05-05 17:14 53.53103 28.51491 42147 ft 459 kts 254°
2026-05-05 17:14 53.52680 28.46216 42151 ft 459 kts 274°
2026-05-05 17:14 53.53427 28.40997 42147 ft 463 kts 295°
2026-05-05 17:15 53.55225 28.36598 42145 ft 468 kts 315°
2026-05-05 17:15 53.57942 28.33433 42149 ft 475 kts 335°
2026-05-05 17:15 53.61151 28.32080 42148 ft 481 kts 356°
2026-05-05 17:15 53.64458 28.32455 42174 ft 486 kts
2026-05-05 17:16 53.71187 28.33696 42131 ft 479 kts 347°
2026-05-05 17:16 53.74283 28.32063 42144 ft 471 kts 329°
2026-05-05 17:16 53.76946 28.28917 42148 ft 466 kts 315°
2026-05-05 17:17 53.81242 28.20775 42138 ft 465 kts 306°
2026-05-05 17:17 53.84821 28.11714 42120 ft 466 kts 310°
2026-05-05 17:18 53.89635 28.04280 42139 ft 472 kts 319°
2026-05-05 17:18 53.94714 27.97134 42141 ft 475 kts 317°
2026-05-05 17:19 53.97442 27.93969 42118 ft 479 kts 333°
2026-05-05 17:19 54.00623 27.92200 42140 ft 485 kts 348°
2026-05-05 17:19 54.03999 27.91839 42141 ft 491 kts
2026-05-05 17:19 54.07378 27.92895 42140 ft 496 kts 17°
2026-05-05 17:20 54.10518 27.95379 42147 ft 501 kts 32°
2026-05-05 17:20 54.13189 27.99221 42135 ft 504 kts 49°
2026-05-05 17:20 54.15211 28.04084 42149 ft 505 kts 62°
2026-05-05 17:20 54.16520 28.09635 42139 ft 506 kts 78°
2026-05-05 17:21 54.16784 28.15577 42144 ft 502 kts 99°
2026-05-05 17:21 54.15879 28.21268 42148 ft 496 kts 119°
2026-05-05 17:21 54.13936 28.26040 42146 ft 489 kts 139°
2026-05-05 17:22 54.08007 28.30878 42145 ft 474 kts 175°
2026-05-05 17:22 54.01441 28.31269 42142 ft 473 kts 184°
2026-05-05 17:23 53.94888 28.30791 42133 ft 476 kts 184°
2026-05-05 17:23 53.91536 28.31040 42121 ft 480 kts 171°
2026-05-05 17:23 53.88407 28.32812 42130 ft 486 kts 153°
2026-05-05 17:23 53.85606 28.36056 42143 ft 490 kts 141°
2026-05-05 17:24 53.83081 28.39979 42146 ft 492 kts 138°
2026-05-05 17:24 53.78092 28.47939 42142 ft 493 kts 139°
2026-05-05 17:25 53.73091 28.55842 42141 ft 491 kts 139°
2026-05-05 17:25 53.68115 28.63695 42135 ft 489 kts 139°
2026-05-05 17:26 53.63157 28.71515 42142 ft 487 kts 139°
2026-05-05 17:26 53.58195 28.79330 42153 ft 489 kts 139°
2026-05-05 17:27 53.53220 28.87155 42145 ft 492 kts 139°
2026-05-05 17:27 53.48205 28.95029 42167 ft 493 kts 139°
2026-05-05 17:28 53.43185 29.02900 42138 ft 495 kts 139°
2026-05-05 17:28 53.38152 29.10783 42138 ft 495 kts 139°
2026-05-05 17:29 53.33115 29.18662 42157 ft 494 kts 139°
2026-05-05 17:29 53.28097 29.26503 42151 ft 493 kts 139°
2026-05-05 17:30 53.23087 29.34323 42131 ft 492 kts 139°
2026-05-05 17:30 53.18121 29.42066 42148 ft 491 kts 139°
2026-05-05 17:31 53.13139 29.49828 42143 ft 489 kts 139°
2026-05-05 17:31 53.08134 29.57617 42146 ft 488 kts 139°
2026-05-05 17:32 53.03177 29.65325 42143 ft 487 kts 139°
2026-05-05 17:32 52.98236 29.72998 42148 ft 486 kts 139°
2026-05-05 17:33 52.93286 29.80678 42151 ft 486 kts 139°
2026-05-05 17:33 52.88345 29.88335 42152 ft 486 kts 139°
2026-05-05 17:34 52.83439 29.95929 42152 ft 486 kts 139°
2026-05-05 17:34 52.78499 30.03566 42159 ft 486 kts 139°
2026-05-05 17:35 52.73544 30.11218 42157 ft 487 kts 138°
2026-05-05 17:35 52.68593 30.18854 42156 ft 487 kts 138°
2026-05-05 17:36 52.63639 30.26486 42157 ft 488 kts 138°
2026-05-05 17:36 52.58703 30.34080 42162 ft 488 kts 138°
2026-05-05 17:37 52.53701 30.41766 42158 ft 489 kts 138°
2026-05-05 17:37 52.48765 30.49342 42159 ft 489 kts 138°
2026-05-05 17:38 52.43793 30.56963 42164 ft 489 kts 138°
2026-05-05 17:38 52.38816 30.64585 42165 ft 489 kts 138°
2026-05-05 17:39 52.33840 30.72194 42164 ft 489 kts 138°
2026-05-05 17:39 52.28868 30.79790 42172 ft 489 kts 138°
2026-05-05 17:40 52.23895 30.87379 42162 ft 489 kts 138°
2026-05-05 17:40 52.18930 30.94947 42171 ft 489 kts 138°
2026-05-05 17:41 52.13962 31.02510 42167 ft 488 kts 138°
2026-05-05 17:41 52.09022 31.10023 42171 ft 488 kts 138°
2026-05-05 17:42 52.04056 31.17567 42170 ft 488 kts 138°
2026-05-05 17:42 51.99095 31.25096 42171 ft 487 kts 138°
2026-05-05 17:43 51.94136 31.32611 42172 ft 487 kts 137°
2026-05-05 17:43 51.89226 31.40046 42174 ft 487 kts 137°
2026-05-05 17:44 51.84240 31.47587 42173 ft 487 kts 137°
2026-05-05 17:44 51.79328 31.55006 42175 ft 486 kts 137°
2026-05-05 17:45 51.74387 31.62462 42179 ft 486 kts 137°
2026-05-05 17:45 51.69437 31.69923 42179 ft 486 kts 137°
2026-05-05 17:46 51.64502 31.77353 42182 ft 486 kts 137°
2026-05-05 17:46 51.59567 31.84774 42184 ft 486 kts 137°
2026-05-05 17:47 51.54630 31.92191 42187 ft 485 kts 137°
2026-05-05 17:47 51.49696 31.99596 42190 ft 485 kts 137°
2026-05-05 17:48 51.44795 32.06941 42189 ft 485 kts 137°
2026-05-05 17:48 51.39857 32.14335 42188 ft 485 kts 137°
2026-05-05 17:49 51.34932 32.21701 42193 ft 485 kts 137°
2026-05-05 17:49 51.30832 32.27827 42194 ft 484 kts 137°
2026-05-05 17:50 51.25912 32.35169 42196 ft 484 kts 137°
2026-05-05 17:50 51.20992 32.42506 42200 ft 484 kts 137°
2026-05-05 17:51 51.16080 32.49822 42207 ft 484 kts 137°
2026-05-05 17:51 51.11161 32.57142 42203 ft 483 kts 137°
2026-05-05 17:52 51.06245 32.64449 42206 ft 483 kts 137°
2026-05-05 17:52 51.01331 32.71745 42211 ft 483 kts 137°
2026-05-05 17:53 50.96413 32.79039 42216 ft 483 kts 137°
2026-05-05 17:53 50.91498 32.86321 42218 ft 483 kts 137°
2026-05-05 17:54 50.86594 32.93577 42221 ft 482 kts 137°
2026-05-05 17:54 50.81685 33.00833 42224 ft 482 kts 137°
2026-05-05 17:55 50.76815 33.08022 42223 ft 482 kts 137°
2026-05-05 17:55 50.71914 33.15250 42227 ft 482 kts 137°
2026-05-05 17:56 50.67015 33.22465 42233 ft 482 kts 137°
2026-05-05 17:56 50.62110 33.29682 42238 ft 482 kts 137°
2026-05-05 17:57 50.57206 33.36889 42238 ft 482 kts 137°
2026-05-05 17:57 50.52313 33.44073 42243 ft 481 kts 137°
2026-05-05 17:58 50.47569 33.51029 42247 ft 481 kts 137°
2026-05-05 17:58 50.42667 33.58209 42248 ft 481 kts 137°
2026-05-05 17:59 50.37805 33.65323 42254 ft 481 kts 137°
2026-05-05 17:59 50.35270 33.69029 42258 ft 482 kts 137°
2026-05-05 18:00 50.33886 33.71054 42255 ft 482 kts 137°
2026-05-05 18:00 50.32585 33.72962 42241 ft 482 kts 137°
2026-05-05 18:01 50.31203 33.74992 42241 ft 482 kts 137°
2026-05-05 18:01 50.30148 33.76546 42242 ft 482 kts 137°